ECMWFFLT2_850_thetae_000.txt.gz
Theta_e
336 335 336 337 338 339 336 334 334 334 334 332 326 321 322 327 327 326 329 330 329 328 327 328 326 325 325 329 332 332 331 330 328 327 326 325 325 323 322 320 319 319 320 323 324 325 326 326 326 325 322 319 318 317 319 319 315 311 309 308 308 307
335 337 335 336 337 338 337 336 334 333 334 332 326 322 323 328 327 325 328 330 330 329 328 329 328 325 324 327 332 332 331 330 328 327 326 326 326 325 323 321 320 319 321 323 323 324 326 327 326 327 325 322 319 317 318 320 317 313 310 309 308 307
331 335 336 336 337 337 338 336 333 332 333 332 327 323 324 327 326 325 325 328 330 330 330 331 331 329 327 326 329 330 328 329 328 325 326 327 327 325 323 322 321 320 320 322 324 324 325 326 326 326 326 324 322 319 317 318 316 314 311 310 310 308
324 330 333 335 336 335 336 336 334 332 334 334 330 324 325 326 325 325 324 326 329 330 330 331 332 331 329 326 327 327 326 328 327 324 326 327 327 326 325 323 322 321 320 321 323 325 324 324 325 326 325 325 324 321 317 316 315 314 313 313 313 311
320 324 328 332 335 334 334 336 335 333 335 336 332 326 325 328 325 325 325 325 326 328 329 329 330 330 329 328 328 327 327 327 325 324 324 324 325 325 324 323 322 321 320 319 321 325 326 324 323 324 326 325 325 323 319 317 315 315 316 316 316 312
319 321 324 329 333 334 334 336 336 334 334 335 334 328 326 328 326 324 323 324 325 326 327 328 328 329 330 330 328 326 327 327 324 324 323 322 323 323 322 321 320 320 320 319 319 323 326 325 323 323 326 326 326 324 321 318 316 317 317 317 316 313
318 319 321 325 329 332 334 335 336 335 334 333 334 331 327 326 325 325 324 323 324 324 325 326 327 328 329 330 327 325 326 325 323 322 323 322 322 322 320 319 319 318 318 319 319 321 325 325 324 323 325 326 326 325 323 320 318 318 317 316 315 313
317 318 319 321 323 328 332 334 335 335 335 332 332 332 330 327 325 325 325 324 324 324 324 324 326 327 328 328 325 323 323 323 321 320 322 321 321 321 319 319 319 317 316 318 318 320 324 325 324 324 325 326 327 326 324 321 320 318 317 315 313 312
314 317 318 319 320 322 326 330 332 334 335 333 333 334 333 331 326 325 325 324 324 324 324 324 324 325 327 327 324 322 322 323 323 320 321 320 320 320 319 319 319 317 316 316 316 318 322 324 325 325 325 326 327 326 325 323 321 318 317 316 314 311
311 313 316 318 319 319 320 324 327 330 333 334 335 335 334 332 328 326 325 325 324 324 324 324 324 325 327 327 325 323 323 324 323 322 321 319 320 319 317 318 318 317 314 314 314 316 321 323 325 325 325 326 327 326 325 324 322 319 317 316 314 311
309 310 311 314 317 318 318 318 321 325 329 331 333 335 335 334 331 329 327 327 325 323 324 324 325 326 327 328 327 326 327 327 326 325 323 321 322 321 318 317 318 317 314 312 312 314 319 323 325 326 325 326 327 326 326 325 322 320 318 315 314 311
308 309 309 310 312 314 316 316 317 320 322 325 329 332 334 335 334 332 330 329 327 325 324 324 325 327 328 329 330 329 329 330 330 329 325 324 326 323 320 319 318 318 315 310 309 312 318 322 324 326 325 326 326 326 325 325 323 320 318 315 313 311
307 308 309 310 310 310 312 313 314 316 317 319 323 327 330 334 335 334 333 331 329 327 326 326 325 327 329 330 330 330 329 330 332 332 330 327 328 325 323 321 319 318 316 310 307 311 317 321 324 325 325 325 325 325 325 324 323 320 318 315 312 311
306 306 307 308 310 310 310 310 310 311 313 314 316 320 324 329 333 335 334 333 331 329 329 330 329 328 329 331 332 330 330 330 331 332 332 330 329 328 325 323 320 318 317 311 306 310 316 321 325 325 324 324 323 324 324 323 322 320 317 314 312 311
305 305 305 306 307 309 310 310 309 309 309 310 312 314 317 323 328 332 334 334 333 331 330 331 333 333 331 331 332 331 331 331 331 332 333 332 331 329 326 324 322 319 317 312 306 308 316 322 325 325 324 323 322 323 323 322 322 320 317 315 312 311
306 306 305 305 305 306 308 309 310 310 309 309 309 310 312 315 320 326 332 334 334 332 331 331 334 336 333 331 330 330 329 330 330 331 333 333 332 330 328 326 323 320 318 314 308 307 315 322 325 324 324 323 322 322 322 321 320 318 317 315 313 311
307 307 306 305 305 305 307 308 310 311 311 310 310 309 309 311 313 318 326 331 332 332 331 331 333 335 335 333 331 328 327 327 328 329 332 333 332 331 330 327 324 321 318 316 310 307 312 320 324 324 323 322 321 321 319 317 315 313 314 315 313 311
305 305 305 305 305 305 305 306 308 310 311 312 311 311 310 310 311 312 316 322 328 331 331 332 333 334 335 334 332 330 326 326 327 327 331 333 332 331 330 328 325 322 319 317 314 309 309 314 318 319 317 316 316 316 314 312 312 313 313 314 312 310
304 305 305 305 305 305 305 305 306 308 310 311 311 311 311 311 312 312 312 314 318 324 328 331 332 333 334 332 332 332 329 327 328 328 329 332 332 331 330 329 325 323 320 318 318 314 311 311 313 313 312 311 311 312 313 313 315 317 317 316 312 308
305 306 306 306 306 306 306 306 306 306 308 309 310 310 310 310 312 312 313 312 311 314 317 323 328 331 333 332 331 332 332 330 329 328 328 331 332 330 328 327 326 324 321 319 320 319 316 316 317 317 316 315 315 316 318 319 319 318 318 315 310 307
306 306 307 307 307 306 306 306 306 307 307 307 308 309 309 310 312 313 313 313 313 312 311 312 316 321 326 328 330 332 333 332 330 328 327 328 329 329 328 327 326 325 322 320 321 321 320 320 320 321 320 320 321 321 321 321 320 319 317 311 308 311
307 306 306 307 307 306 306 306 306 306 307 307 307 308 309 310 311 312 313 314 313 313 313 311 311 312 315 318 325 332 333 334 333 330 328 327 327 328 327 327 326 325 323 321 321 322 322 322 322 322 322 322 323 324 322 320 319 319 315 310 311 315
310 307 306 307 306 305 305 305 305 306 307 308 308 307 308 309 310 311 312 313 313 313 313 313 312 311 311 312 318 328 332 333 334 333 331 329 327 327 327 328 327 326 324 323 322 323 324 324 324 323 323 323 324 325 323 321 318 316 314 314 316 318
310 308 307 307 305 305 304 304 305 305 306 307 308 309 308 308 309 310 311 312 313 314 313 313 313 312 312 311 313 320 328 332 333 333 333 331 328 326 326 328 328 328 326 324 323 323 324 324 325 325 324 323 324 324 323 321 317 313 313 317 319 319
311 309 307 306 304 304 304 304 304 305 306 306 308 309 310 310 310 310 311 312 312 313 314 313 313 312 313 312 311 313 320 328 331 333 334 333 332 329 327 327 328 329 327 325 324 323 323 324 325 325 325 324 324 324 323 321 317 312 313 319 320 320
311 309 307 306 305 304 304 303 304 304 306 306 307 309 310 311 310 310 311 311 312 312 313 313 313 313 313 313 312 310 312 317 324 331 334 334 332 331 329 328 327 329 328 326 324 324 323 324 325 326 326 325 324 323 322 320 318 315 316 318 319 321
310 308 306 305 304 304 304 303 304 305 307 308 308 309 311 312 311 310 310 311 311 312 312 312 313 313 312 312 312 312 311 311 314 321 329 333 332 331 331 330 328 329 329 327 325 324 323 323 326 327 327 326 325 324 322 320 319 318 318 318 317 320
309 307 306 305 304 303 303 303 303 305 309 311 311 311 312 313 312 312 311 311 311 312 312 311 312 313 313 312 312 312 312 312 311 313 318 324 327 329 330 331 330 329 329 328 326 325 324 324 325 326 327 327 326 326 323 322 319 318 318 316 315 317
308 306 305 304 304 303 303 303 303 305 309 312 312 312 313 312 312 312 312 312 312 311 311 311 312 312 312 313 312 312 312 312 312 313 315 316 320 324 328 331 332 331 330 328 326 326 326 324 324 325 327 327 327 326 325 324 321 320 320 318 315 314
307 306 305 304 303 303 303 303 303 305 309 311 312 312 312 312 312 312 311 311 311 311 311 311 311 311 312 312 312 312 312 312 312 312 315 316 317 322 326 329 332 332 331 329 327 326 326 325 325 324 326 326 326 326 325 325 323 322 322 322 319 314
306 305 304 304 304 303 303 303 303 305 307 310 312 312 312 312 312 311 311 311 311 311 311 311 311 311 311 312 312 312 312 312 312 312 314 315 316 321 325 327 331 332 332 331 329 327 326 326 325 325 326 326 326 325 325 325 324 322 322 322 322 318
306 305 304 304 304 303 303 303 303 304 305 307 310 311 311 311 311 311 311 311 311 311 311 311 311 311 311 311 311 312 312 312 312 312 314 314 314 318 322 325 329 331 332 332 330 329 327 326 326 326 327 327 326 325 325 325 324 323 322 322 323 321
305 304 304 304 304 303 303 304 304 304 305 306 307 308 310 310 310 311 311 311 311 311 311 311 311 311 311 311 311 312 312 312 311 311 313 315 315 316 319 323 327 330 332 331 330 329 327 327 327 326 326 328 328 327 325 325 324 323 322 323 324 322
305 304 304 304 304 304 303 304 304 304 305 306 307 307 308 308 309 309 310 310 310 311 311 311 311 311 311 311 311 311 312 312 312 311 312 314 316 317 318 322 326 328 329 331 331 330 329 329 328 327 326 328 328 328 326 326 325 323 322 324 325 323
305 304 304 304 304 303 304 304 304 304 304 306 307 308 308 308 308 308 309 309 309 310 311 311 311 312 311 311 311 311 312 312 312 311 312 314 315 317 318 321 325 328 328 329 330 330 330 330 328 327 327 327 327 328 328 327 326 324 323 324 326 325
305 305 304 304 303 304 303 303 303 303 304 306 308 308 308 308 308 308 308 308 309 309 310 310 311 311 311 312 312 312 312 312 312 312 312 313 314 315 317 320 324 329 329 328 329 329 330 330 329 327 327 327 327 328 328 327 326 325 323 324 326 325
305 305 304 303 303 303 303 303 302 303 303 305 306 308 308 308 308 308 308 309 309 309 309 310 311 311 311 311 311 312 312 312 313 313 312 312 313 313 315 318 322 327 329 329 329 330 330 330 330 328 327 327 328 327 327 327 326 325 324 323 325 326

ECMWFFLT2_850_thetae_003.txt.gz
Theta_e
333 334 333 334 336 337 337 334 332 333 333 332 330 323 318 321 325 326 326 325 325 324 326 325 325 328 330 330 330 331 329 327 327 326 323 321 319 319 319 320 321 320 321 323 324 324 324 323 320 317 315 313 312 313 314 312 309 308 307 307 306 305
328 334 335 333 334 336 336 334 331 333 334 333 331 324 318 323 327 326 327 327 326 326 327 327 327 328 330 330 331 331 329 328 327 326 324 323 321 321 320 321 323 322 322 324 324 324 323 323 322 321 318 314 313 313 313 311 310 308 308 308 307 306
322 328 334 335 335 336 336 335 333 332 334 332 332 329 320 322 329 328 327 328 328 326 326 328 327 328 328 329 332 332 330 329 328 326 325 324 323 322 321 321 322 323 324 324 325 324 324 324 322 322 322 318 314 313 312 312 311 310 309 308 308 307
318 321 326 330 333 335 335 336 336 332 333 333 332 332 325 323 329 329 328 328 330 328 327 328 329 329 328 328 332 332 329 329 328 326 325 325 324 324 322 321 321 322 323 325 325 325 325 325 323 320 322 321 317 313 312 312 311 310 310 309 309 307
317 318 319 322 327 332 334 335 336 334 333 334 333 331 328 326 328 329 328 328 330 329 328 329 330 331 329 329 332 332 330 329 328 327 326 326 326 325 324 322 321 321 322 324 325 325 324 326 325 322 321 321 321 316 312 312 312 310 309 310 310 308
317 317 318 318 321 328 333 333 335 336 335 335 335 332 329 328 329 329 328 327 329 330 329 329 331 331 329 329 331 331 330 329 328 328 326 326 327 326 325 323 322 322 322 323 324 325 324 325 325 324 321 321 323 320 314 312 312 311 310 310 311 309
315 317 317 317 318 324 332 334 334 335 335 336 336 334 330 329 330 329 329 328 328 329 330 330 331 331 329 328 329 329 328 328 329 328 326 326 327 326 326 324 323 322 322 322 322 323 324 325 325 325 323 322 324 322 318 314 313 314 312 311 312 310
312 314 316 317 318 320 326 332 334 334 335 335 335 335 333 331 331 330 329 329 328 328 329 330 330 330 330 329 329 328 328 328 328 326 325 325 326 326 325 324 323 322 322 322 322 322 323 324 325 325 325 324 324 325 322 317 315 317 316 313 312 311
309 310 312 315 317 318 320 325 331 333 334 334 334 334 334 332 331 331 330 330 329 328 327 328 329 328 329 329 330 330 328 328 328 326 324 323 324 325 324 323 322 321 321 321 321 321 322 322 323 325 325 325 325 325 324 321 318 318 318 316 314 312
308 309 310 312 314 317 318 320 323 326 330 332 333 334 334 333 330 329 330 330 329 328 327 327 327 327 328 328 330 330 327 327 328 326 323 321 322 323 323 322 320 320 320 319 319 320 320 321 322 324 325 326 326 326 326 324 321 320 319 318 316 314
307 308 309 309 311 313 315 317 318 319 322 325 327 330 333 334 332 329 328 330 329 328 328 327 326 327 328 328 328 328 327 327 327 324 322 321 321 322 321 320 318 318 319 318 317 318 318 319 321 322 324 326 326 326 326 325 324 322 320 319 317 315
306 306 307 309 309 310 311 313 315 315 317 318 319 322 325 328 332 332 331 329 328 329 328 327 326 325 326 326 326 327 327 327 324 321 322 321 320 320 319 319 318 317 318 318 316 315 316 316 319 321 323 326 326 326 326 325 325 324 322 319 317 315
305 306 306 307 307 309 310 310 310 311 312 313 314 315 317 319 322 328 331 331 329 329 328 327 327 325 324 325 326 327 326 325 324 323 323 323 322 320 321 322 320 318 318 318 316 314 314 314 316 319 322 325 326 326 326 326 325 324 323 320 317 315
306 306 305 305 306 306 307 308 309 310 310 310 310 311 312 313 314 318 324 329 330 330 328 328 328 327 325 325 325 327 328 327 326 325 326 327 326 322 323 326 323 320 319 318 317 315 311 311 313 317 321 324 326 326 325 326 326 325 324 321 317 314
305 305 305 305 305 305 305 306 307 308 310 310 310 310 309 309 310 312 316 323 330 331 329 328 328 329 328 327 326 326 328 329 329 328 328 329 330 326 326 328 327 323 320 319 318 316 311 309 311 316 320 323 326 326 326 326 325 324 323 321 318 314
305 305 305 305 305 305 305 305 305 306 308 310 311 311 311 310 309 310 311 317 325 328 329 330 329 329 330 329 329 328 328 328 330 330 329 329 331 331 329 329 330 328 324 320 319 317 311 308 311 315 319 322 325 326 326 325 325 324 323 321 318 315
305 306 306 306 306 306 306 305 306 305 305 307 310 311 312 312 311 310 310 313 318 322 327 331 330 330 331 330 330 330 329 329 330 331 331 330 331 332 331 330 331 330 327 322 319 318 312 308 311 316 320 323 324 325 325 324 323 323 321 320 318 317
307 307 307 307 307 306 306 306 306 306 306 305 307 309 311 312 311 311 311 311 313 317 323 329 331 331 331 331 331 331 331 332 331 331 331 331 331 332 332 331 331 331 329 325 320 318 313 308 312 318 321 323 324 324 324 323 322 321 319 317 315 315
307 307 307 307 307 306 305 305 305 306 307 307 306 307 308 310 310 311 311 311 311 313 318 324 328 330 331 332 332 332 333 334 334 333 332 331 331 331 332 332 332 331 329 326 322 319 313 308 312 319 322 323 324 323 323 322 321 319 314 312 313 315
308 307 307 307 307 307 306 305 305 305 305 306 307 307 307 308 309 310 311 311 312 312 313 315 319 324 328 331 332 333 334 334 335 334 334 332 330 330 331 331 332 331 329 326 322 319 314 308 312 321 323 323 324 323 322 320 317 313 311 313 316 318
310 309 309 308 308 307 306 306 305 305 304 304 306 307 307 307 308 310 311 312 313 313 313 312 313 315 318 323 327 332 334 334 333 332 333 333 331 328 329 331 332 330 328 326 323 319 314 308 313 321 324 324 323 321 318 315 312 311 314 317 319 320
311 311 310 310 309 307 306 305 305 305 304 304 304 306 308 308 308 308 310 311 312 312 313 313 313 312 312 313 316 322 328 333 333 330 330 333 333 329 327 330 331 330 329 326 323 321 315 311 314 319 323 323 320 316 313 313 314 316 319 320 320 321
311 311 311 311 310 307 305 305 305 304 304 304 303 305 307 308 309 308 309 310 310 311 312 312 313 313 313 312 311 313 316 321 324 322 322 330 334 329 327 330 330 329 328 326 324 321 318 315 315 318 322 322 320 319 318 317 317 320 321 320 320 318
312 311 311 311 309 306 305 305 304 304 304 303 303 304 306 308 309 310 309 310 310 311 311 312 313 313 313 313 312 312 312 312 312 311 314 328 335 331 327 329 330 329 327 326 324 322 320 318 317 318 321 322 323 324 323 323 322 321 321 320 318 314
312 311 311 311 308 306 305 305 304 303 303 303 303 304 307 309 310 310 311 310 311 311 311 312 312 313 313 313 313 312 313 312 311 310 312 323 332 332 329 329 329 329 328 325 325 324 322 320 319 318 319 321 324 325 325 325 325 323 321 319 316 311
312 312 311 310 307 305 305 304 304 303 302 303 302 304 308 310 310 311 311 310 311 311 311 312 311 312 312 313 313 313 313 312 312 314 315 317 322 325 327 329 330 330 328 326 325 325 324 322 321 320 320 321 322 323 324 325 324 324 323 320 315 310
312 311 310 308 306 305 305 304 304 302 302 302 302 304 308 311 312 311 311 311 312 311 311 311 311 311 311 312 313 313 313 312 312 315 318 319 321 321 320 322 327 330 329 327 326 325 325 324 323 322 321 321 321 322 323 323 323 324 323 320 315 310
312 311 310 307 305 305 305 304 304 303 303 303 303 303 306 310 311 312 312 312 312 312 312 311 311 311 311 311 312 312 313 313 312 314 317 320 324 326 324 320 323 330 330 328 327 326 326 325 325 324 323 322 322 323 323 323 323 323 323 322 318 312
312 311 309 307 305 305 305 304 304 304 304 304 304 304 304 307 309 310 311 312 312 312 311 311 311 311 311 311 311 312 312 313 313 313 315 318 321 325 328 328 328 330 330 329 328 327 327 326 325 325 324 323 323 324 324 325 325 324 322 323 322 318
312 311 309 307 305 305 305 305 304 304 304 305 305 305 304 305 306 308 309 310 310 311 311 311 311 310 311 311 310 311 312 313 313 312 313 316 320 322 324 327 329 330 330 330 329 328 328 327 326 326 325 324 324 324 326 326 326 325 324 323 324 322
312 311 309 307 305 305 305 304 304 304 304 305 305 306 306 305 306 306 307 308 308 309 309 310 310 311 311 311 311 311 311 312 312 313 312 313 317 321 323 324 324 326 328 328 329 329 328 328 328 327 326 324 324 324 325 326 326 326 326 325 324 323
312 311 309 307 305 305 304 304 304 304 304 304 305 305 305 306 306 306 307 307 308 308 308 308 308 309 310 310 311 311 311 311 311 312 312 312 312 315 318 321 322 322 323 324 326 329 329 329 329 328 327 326 324 324 324 324 325 325 325 326 325 324
312 311 309 306 305 305 304 304 304 304 304 303 303 304 304 305 306 306 307 308 309 308 308 308 308 308 308 309 310 311 311 311 311 311 312 312 312 312 313 316 321 323 321 320 323 327 329 328 327 328 328 327 325 324 325 324 325 325 324 325 327 325
312 310 309 306 305 305 304 304 304 304 304 303 303 303 303 304 304 305 306 308 309 309 309 309 309 309 308 308 309 310 311 311 311 311 311 312 312 312 312 313 318 322 321 320 321 324 328 329 327 328 328 326 326 325 325 324 325 325 324 325 326 326
311 310 308 306 305 304 304 304 304 304 304 304 303 303 302 302 303 303 304 306 308 309 309 309 309 309 309 309 309 309 310 311 312 311 311 312 312 312 312 312 314 317 320 321 321 322 326 329 329 329 329 326 325 326 326 325 325 325 325 325 326 326
311 309 307 306 305 305 304 303 303 303 303 303 303 302 302 302 302 302 303 304 305 307 308 309 309 309 309 309 310 309 309 310 312 312 311 312 312 312 312 312 313 315 317 319 321 321 323 327 330 329 329 327 326 326 326 326 326 326 325 325 325 326
310 309 307 306 305 305 304 303 303 303 303 303 303 302 302 301 301 301 302 302 303 304 306 308 308 309 308 309 309 310 310 310 310 311 312 312 312 312 312 312 313 314 316 319 321 321 321 323 327 329 328 328 327 326 326 327 327 326 326 326 326 326

ECMWFFLT2_850_thetae_006.txt.gz
Theta_e
327 333 336 336 337 338 338 337 335 334 334 334 333 328 320 317 321 323 323 322 323 326 328 326 325 328 330 329 330 329 329 327 325 324 323 319 319 320 319 317 315 316 318 319 320 320 321 321 320 315 312 314 313 315 321 322 318 318 323 316 313 317
322 329 334 335 336 338 338 338 336 334 334 334 333 330 324 322 326 328 327 326 327 329 330 329 327 329 329 330 331 329 329 328 326 326 323 319 320 320 320 320 318 318 319 321 323 324 323 323 322 319 316 313 312 322 326 317 313 318 321 316 317 315
317 322 329 333 335 337 338 338 337 335 335 335 333 332 329 328 329 330 331 330 330 331 332 331 329 328 329 332 332 329 330 329 327 327 323 320 320 321 321 321 321 320 321 323 325 326 326 326 323 320 318 315 318 328 326 314 315 321 319 317 317 311
314 316 321 328 332 335 338 338 336 335 336 335 333 332 330 330 331 330 331 330 330 332 333 332 330 329 329 331 332 330 331 330 327 327 324 321 321 321 322 322 323 323 322 324 326 326 327 328 327 324 322 321 324 330 325 319 322 325 323 319 314 308
314 315 315 320 327 331 335 338 337 335 335 335 334 333 330 328 331 332 331 330 331 332 331 333 332 329 329 330 332 332 331 330 328 328 325 323 323 321 323 324 323 324 325 325 326 326 326 329 329 329 327 326 328 328 326 324 326 329 327 320 313 307
312 314 315 317 321 327 333 338 339 337 335 334 333 333 331 328 330 332 332 331 332 332 331 335 333 329 331 330 332 333 332 332 330 330 327 326 327 324 325 327 325 325 327 326 326 326 326 328 329 330 330 328 328 327 327 328 327 328 328 323 313 306
309 311 315 319 320 322 329 336 339 338 335 334 333 333 332 330 330 330 330 331 332 333 333 337 333 329 333 330 330 335 334 333 333 331 329 328 330 328 328 330 328 327 327 327 327 326 325 326 329 330 330 329 328 327 328 329 329 327 327 326 319 309
308 308 311 316 318 317 322 329 335 338 336 335 334 333 332 330 330 329 329 329 331 335 335 337 334 329 334 332 330 335 335 334 333 332 330 330 331 331 331 331 330 329 328 327 327 327 326 326 328 329 330 329 329 328 328 328 329 327 327 327 324 313
308 308 309 311 315 316 317 320 326 332 334 336 336 335 334 331 330 330 329 328 329 333 334 336 335 330 332 333 331 333 335 334 332 333 332 330 331 332 331 331 330 330 329 327 327 327 327 326 327 328 329 329 329 329 328 328 328 327 327 328 327 320
307 308 309 310 312 314 316 317 319 322 326 330 333 334 336 333 331 330 330 330 329 330 331 332 334 333 331 332 331 330 333 332 332 333 332 331 330 330 330 330 330 330 329 328 327 327 327 326 326 327 328 328 329 329 328 328 328 326 327 327 328 325
306 307 309 310 310 311 313 315 316 317 318 320 323 326 328 330 331 333 332 331 331 330 330 329 332 334 333 333 332 330 329 331 333 332 331 332 330 327 329 330 329 329 329 328 328 327 326 327 325 325 328 328 328 329 329 329 328 327 327 327 327 327
305 306 307 308 309 309 310 311 313 314 314 315 316 317 319 321 324 329 332 333 332 331 331 330 331 333 333 332 331 331 329 330 332 332 331 332 329 325 327 328 328 328 327 327 327 326 325 325 325 324 326 328 328 329 329 329 329 328 327 327 327 327
306 305 305 306 306 307 308 308 309 310 311 311 312 313 313 314 316 320 326 330 332 331 331 331 330 332 333 331 330 330 329 328 331 332 332 330 328 325 325 325 324 324 323 322 322 321 321 323 323 324 325 327 328 328 329 329 328 328 327 327 327 327
305 305 305 305 305 306 305 306 306 307 308 309 310 310 310 311 312 312 316 321 325 329 331 331 331 331 332 331 330 330 330 329 330 332 332 328 326 324 324 323 321 322 321 319 321 319 317 320 322 322 324 326 328 329 329 329 328 328 328 327 326 326
306 306 306 306 306 306 306 305 306 306 306 307 308 309 310 310 310 310 311 312 316 321 325 330 331 331 331 330 331 330 329 328 329 332 332 328 326 325 324 322 321 323 325 323 323 321 318 320 321 321 323 325 327 328 328 328 328 328 328 327 327 326
307 307 306 306 306 305 306 305 305 306 306 306 306 307 309 310 311 311 310 310 311 314 318 326 331 332 331 329 330 329 327 325 327 332 333 330 329 328 328 326 322 324 327 327 326 326 322 320 322 321 322 325 327 328 328 328 328 328 327 327 327 326
307 307 307 307 306 306 306 305 305 305 305 306 306 307 307 309 311 312 311 311 310 311 317 323 327 330 332 330 330 330 329 328 326 330 332 332 331 331 332 331 328 324 326 329 329 329 326 323 322 321 321 325 326 327 327 327 328 328 327 326 326 326
307 308 308 308 307 307 306 306 306 305 305 305 306 307 307 308 309 311 312 311 310 311 314 318 321 327 331 331 330 331 331 330 328 328 328 331 332 331 331 332 332 329 327 330 330 329 328 325 322 321 322 325 326 326 327 327 328 327 326 326 326 326
309 309 309 309 309 308 306 306 306 305 305 304 304 305 307 308 308 309 310 311 311 311 312 315 321 326 329 330 330 330 331 330 330 331 328 328 330 330 330 330 331 331 330 332 331 329 328 325 322 321 323 326 326 326 327 327 327 327 326 326 326 326
310 310 310 310 310 309 307 306 306 306 305 304 304 304 306 308 309 310 310 310 310 310 311 313 317 322 326 329 330 331 331 329 330 332 332 330 330 330 331 331 330 331 331 332 332 330 328 326 323 322 324 326 326 326 327 327 327 326 326 325 325 325
311 311 311 311 311 309 307 306 306 306 305 304 304 304 305 306 309 310 310 310 310 310 311 311 312 315 318 323 326 328 330 330 331 331 332 332 332 332 332 332 331 331 331 332 332 330 328 326 324 324 326 326 326 326 326 327 326 326 324 325 325 324
312 312 312 311 311 309 307 306 306 306 306 304 303 304 304 305 307 310 311 311 311 311 311 312 312 312 313 314 317 319 321 325 329 330 331 331 332 334 334 333 333 332 331 332 332 330 328 326 325 326 326 326 326 326 326 326 326 325 324 325 325 324
313 312 312 312 310 308 306 306 306 306 305 304 303 303 303 304 305 308 312 313 312 311 311 311 312 312 313 313 313 313 313 315 318 322 327 331 333 335 334 334 333 332 331 331 331 330 329 327 325 325 326 326 326 326 326 326 325 325 325 325 325 325
313 312 312 312 311 308 307 306 306 306 306 305 303 302 304 308 309 310 313 315 314 313 311 311 312 312 312 312 312 313 312 313 313 314 317 322 328 332 332 332 332 332 332 331 331 330 329 327 326 325 326 327 326 326 326 326 326 325 324 325 325 325
313 312 312 312 310 308 307 306 306 306 306 305 304 304 305 309 311 313 314 314 315 315 314 313 312 311 312 312 312 312 312 313 314 315 314 313 317 322 327 328 326 326 331 332 330 330 329 327 326 325 326 327 326 326 326 325 327 327 325 325 325 325
313 313 312 312 310 308 307 306 305 305 305 305 305 305 305 304 306 311 314 314 315 315 315 314 313 311 311 312 312 312 312 313 313 316 317 314 313 313 317 320 318 322 331 331 328 328 328 328 328 325 324 326 326 326 327 326 327 329 327 326 326 326
313 313 313 312 309 308 307 306 306 306 305 305 305 304 305 304 304 306 311 314 314 314 314 314 314 314 313 313 313 311 312 312 312 314 315 317 318 312 312 318 322 327 332 331 328 328 328 328 328 327 324 324 326 327 328 328 328 328 328 327 327 327
314 313 313 312 310 308 307 306 305 306 305 305 305 304 304 305 305 305 306 310 312 313 314 314 314 314 314 314 315 314 313 312 312 313 313 316 320 316 313 321 328 331 332 331 328 327 328 328 329 327 325 324 326 327 328 328 328 327 327 327 327 327
313 313 313 312 311 308 307 306 305 305 305 305 305 305 304 304 305 306 306 306 308 309 311 313 314 314 313 314 315 315 315 314 313 312 312 313 317 318 318 320 325 328 330 330 329 328 328 328 329 328 326 325 326 327 327 327 327 327 327 325 326 327
314 314 313 312 311 308 306 306 305 305 305 305 305 305 304 303 304 305 305 306 307 308 309 310 311 313 313 313 314 314 315 315 314 313 313 312 313 317 321 322 322 324 326 325 327 329 328 325 326 328 327 326 326 328 328 327 327 327 327 326 326 325
313 313 313 313 311 308 306 305 305 305 305 305 305 305 304 304 303 303 303 304 306 307 308 309 310 311 312 312 313 314 314 315 315 314 313 313 312 314 319 323 323 323 324 323 324 326 325 323 324 325 327 326 326 327 328 329 328 328 327 327 326 326
313 313 313 313 311 309 306 305 305 305 305 305 305 305 305 304 304 303 303 303 303 304 305 307 309 310 312 312 311 312 313 314 315 315 314 312 312 313 315 319 323 324 324 325 325 325 323 321 321 324 326 325 325 325 327 329 329 328 328 328 327 327
313 313 313 312 311 309 307 305 305 305 305 305 305 305 305 304 304 303 303 303 303 303 302 303 305 307 310 311 311 310 311 313 315 315 315 314 312 312 314 315 320 324 324 324 326 327 324 321 321 323 325 326 325 324 325 327 329 329 328 328 328 327
312 312 313 312 311 309 307 305 305 305 305 305 305 305 305 304 304 303 303 303 303 303 303 303 302 303 305 307 309 309 310 311 312 313 315 315 314 312 312 313 316 321 324 324 325 326 326 325 325 324 321 322 325 326 325 325 328 329 329 329 328 327
311 311 312 312 311 309 307 306 305 305 305 304 304 304 305 304 304 303 303 303 303 303 303 303 303 302 302 303 305 308 309 309 310 311 313 314 315 314 313 312 313 316 320 323 325 325 325 326 327 325 319 318 319 321 323 325 327 328 329 329 329 328
310 311 312 312 311 309 307 305 305 305 304 304 304 304 304 304 304 303 303 303 303 303 303 303 303 303 302 302 302 304 307 309 310 310 310 311 314 316 315 314 313 312 314 317 321 323 325 325 325 326 322 320 319 315 316 323 327 328 328 329 329 328
309 310 311 312 311 309 307 305 305 305 304 304 304 304 304 304 303 303 303 303 303 303 303 302 302 302 302 302 302 302 304 307 309 310 310 311 313 315 316 316 315 314 312 312 314 317 322 325 325 323 323 322 323 319 315 317 323 326 327 328 328 328

ECMWFFLT2_850_thetae_009.txt.gz
Theta_e
336 338 337 338 337 337 338 337 336 335 336 334 330 323 317 316 319 323 324 324 325 325 327 327 324 324 326 328 329 328 326 325 325 322 320 319 316 317 318 315 312 312 315 320 319 318 317 318 320 318 317 317 318 313 316 329 329 327 330 328 325 325
332 336 336 336 336 336 338 338 337 336 335 334 333 329 319 316 322 325 324 326 327 327 329 329 328 327 329 330 330 329 327 326 325 323 321 319 318 318 317 315 314 315 317 318 319 321 321 319 317 315 314 315 315 315 324 330 326 327 330 327 324 323
328 332 335 336 336 336 337 338 338 336 335 334 335 333 325 319 326 329 327 329 329 330 330 331 332 330 331 332 330 330 329 328 326 324 323 320 319 319 318 316 317 318 320 322 323 325 326 323 318 315 313 313 314 321 331 327 323 328 329 329 326 321
325 328 332 334 336 336 335 337 338 336 335 334 334 334 329 325 331 332 332 332 332 333 333 333 334 332 332 334 332 331 329 329 327 325 325 321 320 321 320 320 320 322 324 326 327 327 328 328 327 321 313 313 319 327 333 326 324 330 329 330 326 317
324 325 328 332 334 335 333 335 337 336 336 335 334 335 332 330 333 334 334 334 333 335 334 335 335 332 333 333 333 332 330 331 330 328 326 322 323 322 322 323 323 324 327 328 328 326 327 330 331 328 322 322 326 331 332 328 327 331 331 331 327 319
324 323 325 329 331 333 332 335 336 335 335 335 333 333 333 333 333 333 333 334 334 336 334 335 336 333 333 333 334 334 333 333 332 331 327 325 327 325 325 328 327 327 329 328 327 327 327 329 331 330 330 329 330 331 331 330 330 331 332 332 330 324
322 321 324 327 329 331 333 334 336 335 333 334 333 331 332 333 333 332 332 333 334 334 334 335 336 334 334 335 335 334 335 333 331 333 329 328 331 329 328 330 329 328 329 328 328 328 327 329 330 330 331 330 330 331 330 330 331 331 331 331 330 325
319 320 322 325 327 329 331 333 336 337 334 334 333 332 334 334 333 331 331 333 333 334 335 335 335 335 335 336 336 333 335 334 331 333 331 330 332 331 330 331 330 329 329 329 328 328 328 328 329 330 330 330 330 331 329 331 332 331 330 331 329 322
315 319 319 322 326 327 328 330 332 334 334 335 335 334 335 335 334 332 331 332 331 334 335 334 335 335 336 337 336 334 334 335 333 334 332 331 333 333 332 332 332 331 330 329 328 327 329 329 329 329 330 330 330 331 330 330 332 331 330 331 329 323
312 317 320 320 323 324 324 326 327 327 328 332 334 335 335 334 334 333 332 331 330 333 334 333 333 334 334 335 335 335 334 334 334 334 333 332 333 334 333 333 333 332 331 330 328 328 328 329 329 329 329 330 330 330 330 330 331 331 330 331 330 328
307 311 318 320 319 320 321 322 322 323 325 324 325 331 334 333 333 333 333 333 332 333 333 332 333 333 333 333 333 335 335 334 335 334 334 334 334 333 332 332 332 331 331 330 328 328 328 329 329 329 329 329 330 330 330 330 330 330 330 331 331 329
306 306 311 316 316 317 319 320 318 322 323 318 317 323 329 330 329 331 332 334 333 333 334 334 333 333 333 332 331 332 334 335 335 334 334 335 335 334 332 332 331 330 331 330 329 328 329 329 329 328 328 328 329 329 330 330 330 331 330 330 330 329
305 305 306 308 313 314 314 317 317 319 318 314 317 320 323 324 320 322 325 330 333 333 334 335 334 332 331 331 331 331 332 334 335 334 335 335 335 335 333 332 331 331 331 330 330 329 329 330 329 328 327 328 328 329 330 330 330 330 330 330 330 330
305 306 305 305 310 310 310 315 316 316 312 311 318 320 320 319 314 314 316 321 329 332 333 333 334 332 331 331 332 332 331 332 334 334 335 335 335 335 334 333 332 331 331 330 330 330 330 330 328 327 326 327 328 329 330 330 330 330 330 330 329 329
306 305 306 305 307 306 307 311 312 311 308 308 316 320 318 316 316 318 316 314 317 323 328 331 332 333 333 332 332 332 330 331 333 333 334 334 335 335 335 333 332 332 331 330 330 330 330 330 328 327 326 325 327 329 330 330 329 330 329 329 329 329
307 306 307 306 306 306 305 308 309 307 306 307 312 319 319 313 316 321 318 317 315 311 317 325 329 332 334 333 331 330 329 330 332 332 334 334 334 335 334 332 332 331 331 331 331 329 329 329 328 327 326 325 325 328 330 329 329 329 328 328 328 329
308 308 308 308 307 308 307 309 312 309 307 307 309 315 316 313 317 320 319 321 318 310 310 315 320 328 331 332 332 332 331 331 330 332 334 333 333 333 332 331 333 331 330 330 330 330 329 329 328 327 327 326 325 327 329 329 329 328 328 327 328 328
308 309 309 309 309 310 310 311 314 314 312 313 314 311 310 315 318 319 319 319 315 310 310 309 316 325 328 330 332 332 334 333 331 331 332 333 333 333 331 330 333 334 332 331 330 330 330 329 328 327 327 326 326 327 328 328 328 328 328 327 327 328
309 309 310 310 312 313 313 314 314 315 315 315 317 312 311 316 317 317 318 313 309 311 312 309 313 319 321 328 332 331 333 334 333 332 331 332 332 332 332 331 332 334 333 332 332 331 331 330 328 327 327 326 326 327 327 328 328 327 327 327 326 327
310 310 312 314 315 315 314 314 313 313 314 314 316 315 316 316 315 318 317 308 306 310 311 311 311 313 314 321 328 330 333 334 334 334 331 331 331 330 332 332 332 332 332 332 332 333 333 331 329 327 326 325 327 328 328 328 327 327 327 327 327 326
311 311 315 317 315 313 312 313 313 312 312 313 313 313 318 318 313 314 310 306 309 309 309 310 310 311 312 316 321 325 330 332 333 333 332 333 331 331 331 331 331 331 331 331 332 333 333 332 330 328 327 326 328 329 328 328 327 327 327 327 327 326
312 312 313 314 314 312 311 311 311 310 310 313 310 307 312 314 310 309 308 307 310 309 309 310 310 311 311 313 315 318 322 327 330 331 331 332 331 332 331 331 331 330 331 332 333 333 332 331 330 329 327 327 328 329 328 328 328 328 327 327 327 326
314 314 312 312 314 313 310 309 309 308 308 310 309 305 307 309 310 313 314 313 314 313 311 311 312 314 314 314 314 314 316 321 324 324 325 327 328 330 331 332 331 330 331 332 333 333 331 331 330 329 328 328 329 329 328 328 328 328 327 327 327 326
315 315 314 312 313 312 309 309 308 308 308 309 310 310 311 313 313 316 316 316 317 315 312 312 313 316 318 318 319 317 316 319 322 322 323 323 323 324 326 329 332 331 331 331 333 334 333 331 331 329 329 328 328 328 328 329 328 328 327 327 327 326
315 315 314 313 312 311 311 312 312 312 313 314 315 313 310 310 311 315 317 316 316 314 311 314 315 315 317 318 320 320 319 320 321 321 323 323 322 320 318 321 328 331 331 332 332 333 333 332 330 329 329 328 328 328 328 328 329 329 328 328 327 327
317 315 314 313 313 311 312 314 314 315 314 314 315 312 307 306 306 310 314 314 315 314 312 313 314 314 315 316 317 318 319 320 319 319 321 323 325 324 319 315 318 324 329 333 334 333 333 332 330 329 328 328 328 328 328 328 329 330 329 329 328 327
318 317 314 313 314 311 312 313 310 310 311 312 313 310 306 306 305 305 306 309 313 316 315 314 314 314 315 315 316 316 316 318 318 319 319 321 324 325 324 319 314 314 319 326 331 333 332 331 329 330 329 328 327 327 328 328 328 328 329 330 329 329
318 319 315 314 314 312 314 313 309 308 311 312 310 308 307 307 306 305 304 304 309 314 315 315 314 315 315 315 316 316 316 317 318 318 318 319 321 323 324 323 320 317 316 319 323 327 329 328 328 329 329 328 327 326 327 327 328 328 328 329 330 330
317 319 316 314 314 313 313 312 310 310 313 311 308 307 310 309 306 306 305 304 305 308 312 314 314 315 315 315 315 315 316 317 317 318 319 320 320 321 322 322 323 323 321 321 323 324 325 326 327 330 330 328 326 326 326 326 327 328 328 328 329 330
316 318 315 314 314 314 312 310 309 309 309 309 307 307 309 308 306 306 306 305 304 306 310 311 310 311 312 313 314 315 316 316 317 317 318 319 319 319 319 318 320 324 323 322 325 326 326 327 329 331 330 328 327 326 326 326 326 328 328 328 329 329
315 316 315 314 314 314 313 311 309 308 307 306 306 306 306 307 306 306 306 305 306 307 308 307 306 307 309 310 310 312 313 314 316 317 317 318 318 317 317 315 315 321 324 324 324 326 326 328 331 332 330 328 328 328 327 326 326 327 328 328 329 329
314 315 315 314 314 314 314 312 310 308 307 306 306 306 306 306 306 306 306 306 307 308 309 309 308 308 309 309 307 306 307 310 312 315 316 317 318 318 318 318 316 318 322 325 325 324 325 327 330 331 331 329 328 329 328 327 326 327 329 329 329 329
315 315 314 314 314 314 313 312 311 308 306 306 306 305 305 306 306 306 307 307 306 307 309 310 309 307 307 306 305 304 304 304 307 311 314 316 317 318 319 319 320 319 320 322 325 325 324 326 328 329 329 329 328 328 329 328 326 326 327 329 330 329
315 316 315 314 313 313 313 313 311 309 307 306 305 305 305 305 305 306 307 306 305 305 306 306 306 305 305 304 304 304 304 303 303 305 309 312 313 315 317 318 319 319 319 319 322 325 325 325 327 327 327 328 329 329 328 327 326 325 325 326 327 328
315 316 314 313 312 312 313 312 311 310 307 306 305 305 305 305 305 305 305 305 305 305 305 304 305 305 304 304 304 304 304 303 303 302 304 307 310 311 313 316 317 318 319 318 319 322 324 325 325 326 327 327 328 328 327 327 325 323 323 324 325 326
313 315 313 311 312 312 312 312 312 311 308 307 306 305 305 305 305 305 305 305 305 304 304 304 304 304 304 304 304 304 303 303 303 302 302 304 308 310 310 312 315 317 318 318 318 319 321 324 325 325 326 326 326 327 326 325 325 323 322 323 325 325
313 316 314 311 311 311 312 312 312 311 309 307 306 305 305 305 305 305 305 305 305 305 305 304 304 304 304 304 303 303 302 302 302 302 301 302 305 309 310 311 314 317 317 317 319 319 319 321 323 325 325 325 326 327 326 324 322 321 322 325 326 324

ECMWFFLT2_850_thetae_015.txt.gz
Theta_e
340 338 339 339 339 339 338 337 336 334 333 333 331 323 320 323 325 326 326 326 326 327 328 330 329 325 323 324 324 325 327 327 325 323 321 319 317 315 314 315 317 318 322 324 326 329 329 328 326 320 319 325 327 328 329 328 327 325 325 326 327 326
337 338 337 339 339 338 338 338 337 335 334 334 332 325 320 323 324 324 324 324 325 325 327 328 327 325 323 322 323 325 327 327 326 323 321 319 317 317 316 316 315 314 320 323 322 322 323 323 324 322 319 322 327 328 327 327 326 325 327 329 329 327
332 335 336 337 337 337 337 337 337 336 334 335 333 327 320 321 324 322 322 323 324 325 326 327 327 326 326 324 323 325 327 327 327 325 322 319 317 318 315 314 312 311 317 321 319 319 320 319 319 321 319 318 323 328 328 327 328 328 328 329 328 327
327 331 334 334 334 336 336 336 337 336 335 335 334 330 323 323 326 325 325 325 326 326 326 327 329 329 329 328 326 326 328 327 327 325 323 320 318 319 316 312 311 311 314 316 318 322 325 324 321 319 319 317 319 324 326 327 327 328 328 327 326 326
324 327 330 330 331 334 335 335 337 337 336 335 335 333 328 326 328 330 331 330 328 328 328 329 332 332 331 331 330 329 329 328 327 326 324 322 320 320 319 316 313 315 317 317 320 326 328 329 329 324 317 316 316 315 320 325 326 327 327 327 328 328
325 327 326 328 330 330 332 333 336 337 336 335 335 334 331 328 328 331 333 332 332 331 331 332 333 334 333 332 332 331 331 329 328 326 325 323 322 321 322 322 320 323 325 324 326 328 328 329 332 329 317 316 321 316 317 324 325 326 328 329 330 329
325 327 326 330 330 326 329 332 335 336 336 336 335 335 333 328 327 331 334 334 334 333 333 333 333 334 334 332 333 333 332 331 330 327 327 326 324 322 323 325 325 326 327 328 328 328 328 329 332 330 320 321 328 325 322 326 326 327 330 330 331 331
324 328 329 332 331 327 328 330 333 336 336 336 335 335 334 330 326 330 333 334 335 334 333 333 334 334 334 333 333 333 333 332 331 330 328 328 325 324 325 327 327 327 327 327 327 326 327 329 331 331 325 324 328 329 329 329 327 328 331 330 331 330
323 328 329 333 332 328 328 329 332 335 336 336 336 335 334 333 329 329 332 334 334 334 334 334 334 334 333 334 333 334 334 333 332 331 331 329 328 328 328 329 328 328 329 328 327 325 325 328 329 329 329 328 329 330 331 328 327 330 331 330 329 329
321 327 327 330 330 327 327 328 330 332 333 335 336 335 334 334 333 331 332 334 334 333 333 333 334 333 333 334 333 333 333 334 333 332 333 330 330 331 331 330 329 329 329 329 329 327 326 326 325 326 328 330 330 331 331 329 328 330 331 331 330 329
316 325 326 328 327 325 326 327 329 330 331 332 335 335 334 334 334 332 331 333 334 333 332 333 333 333 333 333 333 332 332 334 333 333 333 330 331 333 332 331 330 330 330 329 331 330 328 326 325 325 327 330 331 330 331 330 329 330 331 331 331 330
313 318 323 326 327 326 324 324 327 328 329 330 332 333 334 334 333 333 332 332 333 333 332 332 332 333 334 334 332 332 334 334 332 333 334 331 331 332 332 332 331 330 330 330 332 332 328 327 327 326 325 327 330 330 330 331 330 330 330 330 330 330
313 313 315 320 323 325 324 324 324 325 327 327 327 329 330 332 333 333 333 333 333 333 332 331 332 333 333 333 333 332 331 331 331 333 334 332 331 332 332 332 332 331 331 331 332 332 329 327 328 327 324 325 328 329 329 330 330 330 330 329 329 329
311 311 310 312 317 320 320 320 322 324 325 324 323 325 327 328 329 328 328 330 331 331 332 332 331 333 332 332 333 332 329 328 330 333 334 333 331 332 332 332 332 332 331 331 331 331 331 328 328 329 326 325 327 328 328 329 329 330 330 329 329 328
307 307 307 309 313 315 314 314 316 318 320 320 321 323 324 324 323 322 322 324 325 324 328 331 332 333 332 331 331 331 330 329 330 333 333 333 332 332 333 332 332 332 331 331 331 331 331 330 329 329 326 323 326 328 327 328 328 329 329 329 330 330
306 306 306 307 310 311 310 308 308 309 311 315 318 319 320 321 321 322 323 322 322 320 320 326 331 333 332 331 331 331 332 330 330 331 332 333 332 332 333 332 332 332 331 331 331 331 331 330 329 328 325 322 324 327 327 327 327 329 330 330 330 329
306 306 305 306 307 308 307 307 306 306 308 312 314 314 314 318 321 322 323 323 323 321 319 320 324 329 332 331 331 332 332 332 332 331 331 333 333 332 333 333 332 332 332 331 331 331 330 329 329 328 327 325 324 325 326 327 327 328 329 330 330 329
306 306 306 307 308 308 308 309 309 308 308 308 308 310 311 316 320 320 321 323 322 322 321 317 318 323 329 330 331 332 332 332 333 332 332 333 333 333 333 333 333 332 332 332 330 329 329 329 329 329 329 328 327 325 325 325 327 328 329 329 329 330
308 309 309 310 311 311 312 312 312 310 309 308 307 309 310 313 315 314 315 317 318 319 318 315 316 319 324 328 330 331 332 333 333 333 332 332 332 332 333 332 333 333 332 332 330 328 330 331 330 330 329 329 328 328 327 326 326 327 328 329 329 329
310 313 315 316 315 313 313 313 312 312 310 309 307 308 307 308 308 308 309 309 311 314 312 310 312 315 318 322 324 328 331 332 333 333 333 332 330 330 332 332 333 333 333 332 331 331 331 331 331 330 330 330 330 329 328 327 325 324 326 327 328 328
310 314 316 318 318 316 314 311 311 312 311 310 308 307 306 306 305 305 306 306 307 308 308 309 310 311 313 315 316 321 325 327 331 333 333 333 331 330 331 331 333 333 333 332 332 331 331 331 331 330 330 330 331 329 328 327 326 325 324 325 326 327
310 313 314 316 317 316 313 310 310 311 310 310 309 307 307 306 306 305 305 305 305 304 304 306 308 309 311 312 313 315 317 319 324 328 331 332 332 332 332 332 332 332 332 332 332 332 330 330 331 331 330 331 331 329 327 326 326 326 325 324 325 327
310 311 312 314 315 313 311 310 310 310 309 310 309 308 308 307 307 306 306 305 305 305 305 305 306 308 309 313 314 313 314 317 321 324 326 329 331 332 332 332 332 331 331 331 332 332 331 331 331 331 331 332 331 330 327 327 326 326 327 326 325 326
310 311 312 313 313 311 310 310 310 309 310 310 310 309 308 308 307 307 306 306 305 304 305 305 306 307 309 312 314 315 315 316 320 323 324 326 328 329 329 329 330 331 331 332 332 332 332 332 331 331 331 332 331 331 330 328 328 327 328 327 325 325
310 312 312 312 311 311 311 310 310 310 312 312 311 310 309 308 307 307 306 306 305 304 303 304 305 305 308 310 312 314 316 316 317 320 323 324 325 326 326 326 325 326 327 329 330 331 332 332 331 332 333 332 332 331 331 330 329 329 329 328 327 327
310 312 313 312 311 312 312 311 311 311 312 312 312 312 310 308 308 307 306 306 306 305 304 304 304 304 305 307 308 310 314 315 315 316 319 321 322 324 325 325 325 324 323 322 323 324 328 330 331 332 332 332 332 331 331 330 329 329 329 329 329 328
311 312 313 313 312 313 312 312 311 312 313 313 314 314 311 308 308 308 307 307 306 306 305 305 305 303 303 304 306 308 309 312 313 313 314 316 318 320 323 325 325 325 324 323 322 321 321 324 327 330 331 332 332 332 332 331 330 330 330 329 329 329
311 312 313 313 313 313 312 312 312 312 313 314 314 313 311 309 309 308 308 307 307 306 306 306 305 305 304 303 304 305 306 307 308 309 310 311 312 314 318 320 323 325 325 325 325 323 321 320 321 324 326 328 331 332 332 332 331 330 329 330 330 329
311 312 313 313 313 313 313 313 312 312 313 313 312 312 311 310 309 309 308 307 307 307 306 306 306 306 305 305 304 304 304 304 305 305 306 307 308 309 310 313 317 321 323 324 325 325 325 324 323 322 322 323 324 327 330 332 332 331 330 329 329 329
312 312 312 312 313 314 314 313 313 313 313 312 313 313 311 310 310 309 308 308 307 307 307 307 306 306 306 306 306 305 305 305 305 304 304 305 305 306 307 309 311 315 318 321 323 323 324 325 325 324 324 323 321 322 325 328 330 331 332 330 330 329
315 313 312 312 312 314 314 313 312 313 313 313 313 313 312 311 310 309 308 308 308 307 307 307 306 306 306 306 306 306 306 305 305 305 305 304 304 304 305 306 307 309 312 316 319 320 322 323 325 325 326 326 325 323 324 324 323 326 331 331 330 329
318 315 313 312 312 314 315 314 313 313 314 313 313 313 312 311 309 309 309 308 307 307 307 307 307 306 307 307 306 306 306 305 305 305 304 305 304 304 304 304 305 306 308 311 314 317 318 320 322 322 323 325 326 325 325 324 322 324 328 330 329 329
320 317 314 313 311 313 315 314 313 313 314 313 313 313 312 310 309 309 309 308 307 308 308 307 306 307 306 307 306 306 305 305 305 305 304 304 304 304 303 303 303 303 305 307 311 314 314 315 317 319 320 322 324 325 325 326 325 325 326 328 328 328
321 318 315 313 312 312 313 314 313 313 314 313 313 313 312 310 309 309 309 308 308 308 307 307 306 306 306 306 306 306 305 305 305 304 304 304 303 302 302 302 302 302 303 304 308 312 313 313 315 317 318 319 321 323 325 326 326 326 326 326 327 327
322 320 316 314 313 312 312 313 314 313 313 313 313 313 313 312 310 309 309 308 308 308 307 306 306 306 306 306 306 306 305 305 304 304 304 303 302 302 302 302 302 302 302 302 303 308 311 312 313 315 316 317 319 321 323 324 326 326 327 327 327 327
322 319 316 315 314 313 312 312 313 314 313 312 312 312 312 312 311 310 309 308 308 308 307 307 306 306 306 306 306 306 305 304 304 304 304 303 303 303 303 303 302 302 301 301 302 304 307 309 311 313 315 316 317 318 319 320 323 324 326 327 328 328
322 320 317 315 314 312 312 313 313 313 312 311 310 311 310 311 311 310 310 309 309 308 307 307 306 306 306 306 306 305 305 304 304 304 304 303 303 303 304 304 303 303 302 301 302 303 304 306 309 311 313 315 317 317 316 316 318 320 323 325 326 327

ECMWFFLT2_850_thetae_021.txt.gz
Theta_e
338 335 332 332 332 332 333 332 331 330 331 331 331 329 329 329 327 328 329 329 329 327 327 328 330 331 330 329 328 325 324 325 325 324 322 320 319 317 315 313 317 318 321 327 323 321 329 329 327 327 328 329 328 328 330 330 327 326 324 325 325 321
338 337 334 333 333 331 332 333 333 332 330 331 332 330 327 327 326 328 330 329 328 326 325 328 330 330 329 328 328 326 324 325 326 325 322 320 320 318 316 313 314 316 318 327 328 321 323 327 326 326 328 329 329 328 330 329 328 328 325 323 324 323
339 339 337 336 334 332 332 332 334 334 332 331 332 332 328 328 329 329 331 329 326 325 325 327 329 329 326 324 326 326 325 326 327 326 323 321 320 318 317 314 313 313 314 325 331 325 321 322 324 326 327 329 329 328 329 328 329 327 324 324 325 324
339 340 339 338 336 335 334 333 334 335 334 333 333 333 330 328 329 330 331 328 325 325 325 327 328 329 327 323 324 325 325 327 327 326 324 321 320 319 318 315 313 312 313 322 331 329 323 319 320 323 326 329 329 329 329 328 329 325 324 326 325 324
339 338 339 339 338 337 336 336 336 336 336 334 333 334 332 328 327 329 330 327 324 324 324 326 327 328 328 325 322 323 325 328 328 327 325 322 320 320 319 317 313 311 312 321 330 330 325 320 318 320 325 329 329 328 328 328 327 325 325 326 325 325
336 336 336 337 338 338 337 338 337 337 337 336 334 333 333 331 325 325 328 325 322 323 323 324 325 328 329 328 324 323 325 327 328 327 325 323 322 320 321 319 313 310 314 322 329 330 327 323 318 318 324 328 329 328 327 326 326 325 326 326 325 325
332 334 334 334 334 335 336 336 337 337 337 336 335 334 334 333 327 322 322 321 320 323 324 325 327 328 330 331 328 326 326 326 327 327 326 324 322 321 322 320 312 310 317 321 325 326 325 323 319 317 324 327 328 327 326 326 326 325 325 325 325 324
326 329 331 332 331 331 331 333 335 335 336 336 336 335 334 334 331 324 321 322 323 325 327 327 327 329 331 332 332 331 330 328 328 327 327 325 322 322 323 320 312 312 320 323 324 324 321 322 320 317 323 327 326 326 325 326 325 325 324 323 323 323
321 322 324 327 328 329 328 330 333 333 334 335 336 336 335 334 334 329 325 326 327 327 329 330 330 331 332 333 333 332 332 330 330 329 328 326 323 322 324 322 314 313 323 327 328 327 322 320 320 319 323 325 324 324 323 324 323 322 320 319 320 322
318 318 318 321 323 325 325 326 328 331 333 334 335 336 335 335 334 331 328 328 330 331 332 332 333 333 332 333 333 333 332 332 332 331 330 328 324 322 325 325 319 316 323 328 329 328 325 320 317 318 321 322 323 323 321 321 321 320 319 318 319 320
318 318 317 319 322 323 324 323 323 327 331 333 334 336 335 335 334 334 331 328 329 331 333 333 333 334 333 333 333 333 332 332 333 332 331 330 327 322 324 327 325 322 323 326 328 328 327 325 320 317 317 320 323 324 323 322 322 323 321 321 322 322
318 319 319 321 324 325 324 324 322 323 329 332 334 335 335 335 334 334 333 329 328 329 331 333 334 333 333 333 333 333 333 333 333 332 332 331 329 325 323 326 327 326 326 326 327 327 328 327 325 322 319 319 321 323 323 323 326 326 326 326 326 326
317 318 321 323 325 326 325 324 324 323 326 330 333 334 333 334 334 334 334 332 330 330 331 332 333 333 333 333 332 333 333 332 333 333 333 332 331 328 324 325 327 327 327 327 328 328 328 327 327 326 324 322 323 324 323 323 326 328 327 328 328 328
314 316 321 324 325 325 324 323 323 323 324 327 329 331 332 333 334 333 334 333 333 332 332 332 333 332 332 333 333 333 333 333 332 333 333 332 332 330 326 325 326 327 328 328 328 329 329 328 327 327 326 325 325 326 326 325 327 328 328 328 329 329
312 314 320 323 324 324 324 323 322 322 323 325 327 329 331 332 332 331 332 332 333 333 332 332 332 332 332 332 332 332 332 333 333 333 333 333 333 332 329 327 327 328 329 328 328 329 330 330 330 328 326 326 325 325 326 327 328 328 328 328 329 329
311 314 318 322 323 323 323 323 322 322 322 322 324 326 328 330 329 328 327 328 329 330 330 330 330 330 332 332 331 330 332 332 332 330 330 332 333 333 332 330 328 329 329 329 329 330 330 331 330 328 327 327 326 325 325 325 327 328 328 328 328 328
309 311 315 319 320 320 320 320 320 320 321 321 321 323 324 326 326 325 325 325 324 325 325 325 324 325 328 330 330 330 332 332 330 328 328 330 333 334 333 332 330 330 330 331 330 330 330 331 330 328 327 328 327 326 325 325 326 328 328 328 328 328
307 308 311 313 314 315 317 317 316 317 319 320 321 321 321 321 322 323 323 323 323 323 322 323 322 321 323 327 330 332 332 331 330 330 330 331 332 333 333 333 331 330 330 331 331 331 331 331 331 330 329 328 328 327 326 325 325 326 327 327 327 327
307 306 306 307 308 310 311 311 311 314 316 317 318 318 318 318 319 320 320 321 321 321 321 321 321 320 320 322 326 329 331 331 331 332 332 332 332 332 332 333 332 331 331 331 331 330 330 331 331 331 330 328 327 327 327 327 325 325 326 326 326 326
306 306 305 305 306 307 307 306 308 310 310 310 311 312 313 314 315 317 317 319 320 320 320 319 319 319 318 318 320 324 328 330 331 331 332 332 332 331 331 331 331 331 331 331 331 331 331 331 331 331 330 329 328 328 328 328 327 325 324 325 325 326
306 306 306 306 306 306 306 306 307 307 307 307 307 308 308 308 310 311 311 313 315 316 316 315 315 314 314 314 315 319 325 329 330 329 331 332 331 332 331 331 331 331 332 332 332 331 331 331 331 331 331 330 330 329 329 329 329 326 325 325 325 325
306 306 307 306 306 307 307 307 307 307 307 306 306 306 306 306 307 307 306 307 309 309 310 310 309 308 309 311 311 314 319 324 326 328 329 330 329 331 331 331 331 332 333 332 332 332 331 331 331 331 331 330 330 330 330 329 329 328 327 326 325 324
307 307 307 307 308 308 308 308 308 308 308 307 307 307 307 307 306 306 305 305 305 306 306 306 305 305 307 309 309 310 312 316 320 323 325 326 327 329 329 329 330 330 331 331 331 332 331 331 331 331 331 330 331 330 330 330 329 329 329 328 327 325
308 308 307 309 309 308 307 308 308 308 309 308 307 308 307 307 307 307 306 305 304 304 304 304 304 304 306 307 309 310 311 311 313 315 318 320 322 324 327 328 328 328 328 328 329 330 329 330 331 331 331 331 331 331 331 331 330 330 330 329 329 327
308 308 309 310 309 308 308 308 308 308 309 309 308 308 308 308 308 307 307 306 305 304 303 303 303 304 304 305 307 310 313 314 313 312 313 315 317 320 323 326 327 327 327 327 327 327 327 328 328 329 329 329 330 331 331 330 330 330 330 330 329 328
309 309 309 310 309 308 308 308 308 308 309 309 309 309 308 308 308 308 307 307 306 306 305 304 303 303 304 304 304 306 310 313 315 315 316 316 317 318 321 323 324 326 326 326 326 326 326 327 326 326 326 326 327 329 329 329 329 330 330 330 330 328
309 309 309 309 309 309 309 308 309 309 309 309 309 309 309 308 308 308 308 307 307 306 306 305 305 304 304 304 304 304 305 308 310 312 314 315 316 318 319 320 321 323 324 325 325 325 325 325 325 325 324 324 325 326 327 328 328 328 329 329 329 329
309 309 308 309 309 309 309 308 309 309 309 309 309 309 309 309 309 308 308 308 307 307 306 306 305 306 305 305 304 304 304 304 305 306 307 308 310 312 313 315 317 319 321 322 323 323 323 323 324 324 324 324 324 324 325 326 326 327 327 327 328 329
309 309 309 309 309 309 309 309 309 309 309 309 310 310 309 309 309 309 308 308 308 307 307 306 306 305 306 306 305 305 305 305 304 304 304 304 304 305 306 308 309 312 314 317 320 321 321 321 321 322 322 322 322 322 323 324 324 324 325 325 325 326
309 309 309 309 309 310 309 310 310 309 309 310 310 310 310 310 310 309 309 308 308 308 308 307 306 306 305 305 305 305 305 305 305 304 304 304 304 304 304 304 304 305 306 308 311 314 317 319 320 321 320 320 320 321 321 322 323 323 323 324 324 324
309 309 309 310 310 310 310 310 310 310 310 310 310 310 310 310 310 310 309 309 308 308 308 307 307 306 306 306 305 305 305 305 305 305 305 304 304 305 304 304 304 303 303 304 304 306 309 313 316 318 319 320 320 320 321 321 321 322 322 323 324 324
309 309 310 310 310 311 311 311 311 310 310 310 310 310 310 310 310 310 310 309 309 308 308 308 307 307 306 306 306 305 306 305 305 305 305 305 305 305 305 305 304 304 303 302 303 303 304 306 308 311 315 317 318 319 320 320 320 321 321 321 322 322
311 310 310 311 310 310 312 312 312 312 311 311 311 310 310 310 311 311 310 310 309 309 309 308 307 307 307 306 306 306 306 306 305 305 305 305 305 305 305 305 305 304 304 303 302 302 302 302 303 304 307 310 313 315 317 318 318 319 319 320 320 321
313 312 311 311 311 311 311 311 312 312 311 312 311 311 311 311 311 311 311 310 310 309 309 308 308 308 307 307 306 306 306 305 306 305 305 304 305 305 305 305 305 305 304 304 303 302 302 302 302 302 302 303 306 309 312 315 316 317 317 317 318 319
316 315 314 313 312 311 311 311 311 312 312 312 312 312 311 311 311 311 311 311 310 310 309 308 308 308 307 307 306 306 306 306 305 305 304 304 304 304 305 305 305 305 304 304 304 303 302 302 302 302 302 302 302 303 306 309 312 315 316 316 316 317
318 318 317 316 314 312 311 312 312 311 311 311 312 313 312 312 311 311 311 311 310 310 310 309 309 308 308 307 307 306 306 306 306 305 304 304 304 304 305 305 305 304 304 304 304 303 303 303 303 302 302 302 302 302 302 304 306 310 313 314 315 316
319 319 319 319 318 315 313 313 312 312 312 312 312 312 311 312 312 311 311 311 311 311 310 309 309 308 308 307 307 306 306 306 306 305 304 304 304 304 304 305 304 304 304 303 303 303 303 303 303 303 303 303 302 302 302 302 303 305 309 312 313 314

ECMWFFLT2_850_thetae_024.txt.gz
Theta_e
332 330 329 329 330 331 332 333 332 331 331 331 332 333 333 334 334 334 333 331 330 329 328 328 329 330 330 328 326 325 324 323 323 323 323 321 319 319 316 315 320 323 327 328 321 312 322 328 327 328 327 327 327 327 330 328 327 326 324 322 318 317
334 332 330 330 331 331 332 334 332 331 331 331 331 331 330 331 332 332 331 330 330 329 328 328 329 329 330 329 327 326 325 323 324 324 324 322 319 320 318 315 318 322 324 328 325 316 321 328 327 328 327 328 327 327 329 328 328 327 325 323 321 319
336 335 332 331 332 332 332 333 333 332 331 331 331 331 330 329 330 330 328 329 330 329 328 327 327 329 330 330 328 328 326 324 325 326 325 323 320 321 320 315 315 320 322 325 327 321 322 327 328 327 326 328 328 327 329 329 329 327 324 325 323 320
336 337 336 333 332 332 331 331 332 333 333 332 331 332 332 329 330 330 327 329 330 329 328 325 325 328 330 329 327 326 325 325 326 328 327 323 321 321 322 317 313 316 320 322 327 325 322 326 327 326 326 328 328 328 329 329 329 326 324 326 324 322
337 338 338 337 335 334 332 331 331 332 333 333 332 332 333 332 330 329 329 329 330 329 327 324 324 328 329 328 325 323 325 326 326 327 327 324 322 321 322 322 316 314 317 319 326 328 324 324 325 324 325 327 328 329 329 329 328 325 324 326 325 324
338 339 338 339 337 336 335 334 332 332 333 334 334 333 333 333 331 329 328 329 331 329 325 323 324 328 329 328 326 324 324 325 326 327 328 325 323 322 321 323 320 314 313 318 326 329 325 323 322 322 323 326 329 329 329 329 328 325 325 326 325 325
338 337 337 337 337 338 337 336 335 335 335 335 335 335 333 333 332 330 327 326 329 328 324 322 323 326 327 328 328 326 324 324 326 328 328 326 323 322 322 323 320 313 310 318 327 330 327 324 322 320 320 325 329 328 328 328 327 325 326 326 325 326
335 335 336 336 336 336 337 337 337 336 336 336 336 336 335 334 333 333 329 324 324 325 323 322 322 324 326 327 329 329 326 325 326 328 328 327 323 321 322 323 318 311 308 316 327 330 326 323 322 321 319 323 328 328 327 326 326 325 326 326 325 325
328 330 332 333 334 334 334 334 335 335 335 335 336 336 336 335 334 334 332 327 322 321 321 323 324 325 326 327 329 331 330 328 328 328 328 327 325 321 322 323 316 309 310 317 325 326 324 321 321 321 318 322 328 327 327 326 326 326 324 324 323 323
322 323 325 325 327 329 331 331 331 332 333 334 334 335 335 336 335 334 334 330 324 323 324 325 327 328 328 329 330 332 331 330 331 329 328 328 325 321 322 323 314 311 315 319 323 323 322 323 322 321 318 322 327 327 326 326 325 325 323 322 320 320
318 319 319 319 319 321 324 326 327 327 329 331 332 333 333 334 334 334 334 332 327 326 328 329 330 331 331 331 331 331 331 331 332 331 330 329 327 322 322 323 313 313 320 321 324 324 323 325 324 323 319 320 325 327 326 325 324 323 321 320 320 319
315 316 316 316 316 316 318 320 322 322 322 324 327 331 332 332 333 334 334 333 330 328 329 330 332 332 332 332 332 331 332 332 332 331 330 330 329 324 324 324 316 316 324 326 327 327 325 324 324 325 322 320 322 325 326 324 323 322 320 320 322 323
313 314 315 315 316 318 319 320 321 321 320 320 325 330 332 332 333 333 334 334 332 331 329 330 332 332 331 332 332 332 332 332 331 330 331 331 331 328 324 325 321 319 324 327 328 328 326 325 324 325 325 323 322 323 325 324 323 322 320 321 325 326
312 313 314 315 317 320 322 323 323 322 321 321 323 328 330 330 331 332 334 334 333 333 331 331 332 332 331 331 331 332 332 332 332 331 331 331 331 331 325 324 325 323 323 325 327 327 327 326 325 326 326 326 326 324 323 323 323 321 319 323 326 328
311 312 313 314 316 320 322 323 322 322 321 321 321 324 327 328 329 332 332 332 332 332 333 332 332 332 331 331 331 331 331 331 332 332 332 332 332 332 329 325 325 325 325 325 326 327 326 326 326 327 327 326 326 325 323 321 320 319 320 324 327 328
310 311 312 315 318 320 321 322 322 322 321 321 320 321 324 326 328 330 330 330 330 329 330 330 330 330 330 331 331 330 331 330 331 332 332 333 332 332 331 328 325 325 326 326 327 327 326 326 327 327 327 326 326 324 322 322 322 322 323 326 326 327
310 309 311 314 317 319 320 321 321 320 320 320 320 320 322 324 325 325 326 326 325 324 324 325 325 326 326 327 329 329 330 330 331 331 332 332 331 332 332 331 328 325 326 327 327 328 328 327 328 328 328 327 326 325 324 324 325 325 326 327 327 327
308 308 310 313 315 317 317 317 317 317 317 318 318 319 320 322 322 322 323 323 323 322 322 322 323 323 323 323 323 326 329 331 331 331 331 330 329 331 332 331 331 327 326 327 328 329 329 328 328 329 329 328 327 326 325 325 326 326 326 326 327 327
307 307 309 312 314 315 313 312 313 314 314 315 316 317 319 319 320 320 320 320 320 320 319 319 318 318 318 319 319 322 326 329 330 330 331 329 328 329 331 331 331 330 328 328 329 329 329 329 329 330 330 329 327 327 326 326 326 326 326 325 326 326
307 307 308 310 312 311 309 309 310 310 309 310 310 311 313 314 316 316 316 316 316 315 313 311 311 311 311 313 314 316 320 323 326 328 329 330 330 330 331 331 331 331 330 329 330 330 330 330 330 330 330 329 329 328 327 327 327 326 326 325 325 325
308 307 307 307 308 307 307 307 307 306 306 307 306 307 307 308 310 311 311 311 310 310 308 307 306 307 308 308 308 311 315 320 324 327 328 329 330 330 330 331 331 330 330 330 331 331 330 331 331 331 330 330 329 329 328 328 327 327 327 327 325 323
308 307 306 306 306 306 306 306 306 306 306 306 306 306 306 306 307 307 306 306 306 305 305 305 304 306 307 306 306 308 312 316 321 325 327 328 329 329 328 329 330 330 330 330 330 330 330 331 331 331 330 330 330 329 329 329 328 328 328 328 327 324
308 308 307 306 306 306 306 307 307 307 307 307 307 307 306 306 306 306 305 305 304 303 303 303 304 305 306 306 307 308 310 312 316 320 322 324 325 326 327 327 329 329 329 329 329 329 329 331 331 331 331 331 330 330 330 329 329 329 329 329 329 327
309 308 307 306 306 307 307 308 308 308 308 307 307 307 307 307 306 306 306 305 305 304 303 303 303 305 307 309 309 310 311 313 314 316 317 319 320 321 322 324 326 328 328 327 327 328 328 329 330 330 330 330 330 330 330 329 329 329 330 329 329 329
308 308 307 307 307 308 308 308 309 308 308 308 308 308 307 307 307 306 306 306 306 305 305 303 303 305 308 310 311 312 313 314 315 315 316 317 317 317 318 321 323 324 325 326 327 327 328 328 328 328 329 329 329 329 329 329 329 329 330 330 329 329
308 308 308 307 308 308 308 308 308 308 308 308 308 308 308 308 307 307 307 306 306 306 305 305 304 304 306 307 309 310 311 313 315 316 316 317 317 317 318 318 319 319 321 323 325 326 327 327 326 326 327 327 328 328 328 328 328 329 329 329 329 329
308 309 308 308 309 308 307 308 308 308 308 308 308 308 308 308 308 308 307 307 306 306 306 305 305 304 304 305 305 306 307 309 311 313 314 315 315 315 315 315 315 316 317 320 321 322 324 325 325 325 325 325 325 326 326 327 327 328 328 328 329 329
309 309 309 308 309 308 308 308 308 308 309 309 308 309 308 308 308 308 307 307 306 306 306 306 305 305 304 304 304 304 304 305 306 306 307 308 309 309 309 309 309 310 311 313 315 317 318 320 321 322 323 324 324 324 324 325 325 326 327 327 328 328
309 309 309 309 309 308 308 308 308 308 309 309 309 309 309 308 308 308 307 307 307 306 306 306 305 305 305 305 304 304 304 304 304 304 304 304 304 304 304 305 305 305 306 307 308 311 313 315 316 317 319 320 321 322 322 323 323 324 325 325 326 326
310 309 309 309 308 308 308 308 309 309 309 309 309 309 309 309 309 308 308 307 307 307 307 306 306 305 305 305 305 305 305 304 304 304 304 304 304 304 304 304 304 304 304 304 304 305 307 310 311 313 315 316 316 316 318 319 319 321 323 323 323 323
310 310 309 309 309 308 309 308 309 309 309 309 309 309 309 309 309 309 309 308 307 307 307 307 306 306 305 305 305 305 305 305 304 304 304 304 304 304 304 304 304 304 303 303 303 303 303 304 306 308 310 312 313 314 315 315 315 317 318 320 321 321
312 310 310 309 309 309 309 309 309 309 310 310 310 309 309 309 310 309 309 309 308 308 307 307 307 306 306 305 305 305 305 305 305 305 304 304 305 305 305 305 305 305 304 303 303 302 302 302 303 304 305 306 309 312 314 315 315 315 316 317 317 318
314 312 310 310 309 309 309 309 309 309 310 310 310 310 310 310 310 310 310 310 309 308 308 307 307 307 306 306 306 305 305 305 305 305 305 304 304 304 305 305 304 305 305 304 304 303 303 302 302 302 302 303 304 306 310 312 314 315 315 316 316 315
317 314 311 310 310 310 310 309 310 310 310 310 311 310 310 310 310 310 310 310 310 309 308 308 307 307 307 306 306 306 306 306 305 305 305 304 304 304 304 304 304 304 304 304 304 304 303 303 303 302 302 302 302 302 304 306 309 311 313 314 314 315
318 315 312 310 310 310 310 310 310 311 311 311 311 311 311 311 310 311 310 310 310 310 309 309 308 308 307 307 307 306 306 306 306 305 305 304 304 304 304 304 304 304 304 304 304 303 303 303 303 303 303 303 302 302 302 303 304 306 308 311 312 313
319 317 314 312 311 310 310 311 310 311 311 311 312 312 312 311 311 311 311 311 310 310 310 310 309 308 308 308 307 307 306 306 306 306 306 305 304 304 304 304 304 304 304 303 303 303 303 303 303 303 303 303 303 303 303 303 303 303 304 306 310 312
319 318 316 315 313 311 311 310 311 311 311 311 312 311 311 312 311 311 311 311 311 311 311 310 310 309 309 308 308 307 307 306 306 306 306 305 304 304 304 304 304 304 304 303 302 302 302 302 302 302 302 302 303 304 304 304 304 304 303 304 307 310

ECMWFFLT2_850_thetae_027.txt.gz
Theta_e
330 332 333 333 333 333 333 334 335 335 335 335 335 335 335 336 335 334 332 332 332 331 330 329 330 331 330 330 329 327 325 322 322 322 322 322 319 317 315 315 321 324 326 328 326 322 321 323 327 327 324 326 329 329 330 329 328 327 323 322 319 316
330 330 331 332 332 332 332 334 334 333 334 334 334 334 335 335 334 333 333 333 333 331 330 329 329 330 330 330 329 326 325 324 324 324 323 322 319 318 316 315 318 322 325 328 329 325 319 318 326 328 323 323 327 329 330 330 329 328 325 324 322 319
330 330 330 331 332 332 332 333 333 332 332 332 332 332 332 332 332 332 332 332 332 330 330 329 329 329 331 331 329 327 326 326 326 326 325 322 320 319 317 315 316 320 322 325 328 328 321 314 322 328 325 323 325 327 329 330 330 328 327 325 325 323
332 332 331 331 332 333 333 333 334 333 332 332 332 332 332 332 331 331 331 331 329 330 330 329 329 329 330 330 329 328 327 327 327 327 326 324 322 319 317 317 315 316 320 322 325 329 324 315 320 327 327 325 325 326 328 330 330 328 327 326 326 325
334 335 334 333 331 332 333 333 333 333 333 333 332 332 332 332 332 331 330 329 328 329 330 329 328 327 329 330 329 329 328 327 327 327 327 327 325 321 319 320 319 316 318 321 322 326 326 319 320 327 328 327 326 326 328 330 330 327 327 327 326 326
335 336 336 336 334 333 334 333 332 333 333 333 333 332 332 332 332 331 330 329 329 329 330 329 328 327 328 329 329 328 326 326 327 327 327 328 325 323 321 320 322 318 316 319 320 323 327 323 321 326 327 326 326 327 328 330 330 326 326 327 326 327
336 337 338 338 337 336 335 335 334 333 333 332 333 333 333 332 332 332 330 329 329 329 330 330 328 326 327 329 329 328 326 325 326 327 326 328 326 324 322 320 321 320 314 314 318 322 327 326 323 325 327 325 325 327 328 330 330 326 326 326 327 327
337 337 337 338 338 337 336 336 336 335 335 333 333 334 334 333 333 332 331 329 327 327 329 329 326 324 325 326 327 328 328 327 326 325 326 328 328 325 322 320 321 319 314 312 316 322 327 327 324 324 325 323 323 327 328 329 329 326 326 326 327 327
334 335 336 336 336 336 336 336 336 336 336 336 334 334 335 335 333 333 332 330 328 327 326 326 325 323 323 323 325 327 329 329 326 325 326 327 328 327 323 320 322 319 314 311 314 323 327 327 326 324 324 322 323 326 328 328 327 326 326 326 326 326
327 328 328 328 329 330 332 333 333 333 333 334 334 334 335 335 334 333 332 331 330 328 326 324 324 323 323 324 326 328 329 329 327 326 327 327 327 327 324 321 323 319 313 309 312 322 326 325 325 324 323 322 321 324 327 328 326 326 326 325 324 322
319 320 319 318 319 321 324 326 327 329 329 330 330 332 333 334 334 333 332 332 330 329 327 326 326 325 325 327 328 329 329 329 329 329 329 329 328 327 325 322 323 319 311 309 313 320 323 323 324 323 323 322 320 322 326 327 326 326 326 323 322 321
317 316 315 315 315 315 316 317 319 323 324 324 324 326 328 330 332 333 333 333 332 330 329 328 329 329 328 329 330 330 331 331 330 330 330 331 329 328 326 324 324 318 311 312 316 320 323 324 324 323 322 321 320 321 324 327 326 325 325 323 321 321
315 314 314 314 314 314 314 315 316 318 320 321 322 323 324 327 330 332 332 333 333 332 331 330 330 331 330 331 331 331 332 332 331 331 330 331 330 330 328 324 324 319 314 317 319 322 324 326 326 325 323 322 319 320 322 325 326 325 324 322 320 321
313 314 314 315 315 315 315 317 317 319 319 320 322 323 324 325 328 330 331 332 333 332 332 331 331 331 331 330 331 332 332 332 332 331 331 331 331 331 330 326 325 321 317 320 323 324 326 326 326 327 326 323 320 319 320 322 324 325 324 322 321 322
312 313 314 314 315 316 318 319 320 320 320 320 320 320 322 322 323 326 329 330 331 331 331 331 332 331 331 331 331 331 332 332 331 331 331 331 330 331 331 329 327 322 318 322 326 326 327 326 326 327 327 326 323 321 320 320 322 324 325 324 322 323
311 311 312 312 314 316 319 321 321 321 321 321 321 320 320 321 321 324 327 328 328 328 328 328 329 329 328 328 329 331 331 331 331 330 331 331 330 331 332 331 328 323 320 322 326 327 327 327 326 327 327 327 326 324 321 320 321 323 324 324 323 325
310 310 310 310 311 315 318 320 320 320 320 320 319 319 320 321 321 323 324 324 325 325 325 325 325 324 324 326 327 327 328 329 330 330 330 331 331 331 331 331 330 326 322 322 324 326 327 327 326 326 327 328 327 326 324 322 322 322 323 323 324 326
310 309 308 308 310 313 316 318 318 316 316 317 318 319 320 320 321 321 322 322 322 322 323 323 322 322 322 324 324 322 323 326 329 330 330 330 330 331 331 331 330 329 326 323 323 324 325 326 326 325 325 328 328 327 326 325 323 321 321 322 324 326
309 308 308 308 309 312 313 314 313 312 313 316 317 317 317 317 317 317 317 317 317 317 317 317 316 316 316 318 318 317 320 323 327 329 330 329 329 330 330 330 330 330 328 326 324 324 324 325 325 324 324 327 329 328 326 325 324 322 322 323 324 326
309 308 308 308 309 310 310 310 310 310 311 312 313 312 311 311 311 311 311 311 312 312 312 310 309 308 309 309 309 311 314 317 321 324 326 328 329 330 330 330 330 330 330 328 326 325 325 326 326 326 325 325 328 328 327 325 325 324 324 324 324 325
309 308 308 308 308 307 307 307 308 309 308 308 308 307 307 307 307 308 307 307 307 307 307 306 306 306 307 307 306 307 311 314 316 320 325 327 329 330 330 330 330 330 330 330 329 327 326 326 327 328 327 326 327 328 328 327 327 326 326 326 326 326
308 308 308 307 307 306 306 306 307 307 306 306 306 306 306 306 306 306 306 305 305 304 304 304 304 305 306 307 306 306 311 315 317 320 325 327 328 329 329 329 329 330 330 330 330 329 328 328 329 328 326 324 327 329 329 329 329 328 327 326 327 327
308 308 308 307 306 306 306 306 306 306 306 306 307 307 306 306 306 305 305 304 304 303 303 303 303 304 306 308 309 309 310 314 318 321 323 325 325 327 327 327 328 329 330 329 330 330 330 330 330 329 325 323 326 329 329 329 329 329 329 327 327 328
308 308 307 307 307 307 307 306 306 307 307 307 307 307 306 306 306 305 305 305 304 303 303 303 303 305 308 310 312 312 311 313 316 318 320 320 321 322 324 325 326 327 328 328 328 329 329 330 329 330 329 326 327 328 329 329 328 329 329 329 328 329
307 308 308 307 307 307 307 307 307 307 307 307 307 307 307 307 307 306 306 305 305 304 304 303 303 306 309 311 313 313 313 313 313 315 316 316 316 317 319 322 323 325 326 326 327 327 328 329 329 329 330 328 329 329 329 329 328 328 329 329 329 329
307 307 307 307 307 308 308 307 308 308 308 307 307 308 307 307 307 307 306 306 306 305 305 304 304 306 308 309 311 312 312 312 312 314 315 315 314 315 316 318 319 321 323 324 325 326 327 327 327 327 328 328 329 329 328 328 328 328 328 328 329 329
307 307 308 308 308 308 308 307 308 308 308 308 308 308 308 308 307 307 307 306 306 306 305 305 304 305 305 306 307 308 308 309 309 310 311 312 313 312 311 312 313 314 318 320 322 324 325 325 325 325 326 326 327 327 327 327 328 328 328 328 328 329
308 307 308 308 308 309 308 308 308 308 308 308 308 308 308 308 308 307 307 307 306 306 306 305 305 304 304 304 304 305 305 305 305 305 306 307 307 307 306 306 306 307 309 311 314 317 319 321 322 323 324 324 324 325 325 326 326 327 328 328 327 328
308 308 308 308 308 309 308 308 308 308 308 308 308 308 308 308 308 308 307 307 306 306 306 305 305 305 305 304 304 304 304 304 304 303 304 304 304 304 304 304 304 304 304 305 306 307 309 312 314 317 319 320 322 323 323 324 324 325 326 326 326 326
309 308 308 308 309 308 308 308 308 308 308 309 309 309 309 308 308 308 308 307 307 306 306 305 305 305 305 305 305 305 304 304 304 304 304 304 304 304 304 304 304 304 304 304 304 303 304 305 306 308 310 312 314 316 318 319 320 321 322 324 324 324
311 308 308 309 308 309 309 308 308 308 309 309 309 309 309 309 309 309 308 308 307 307 306 306 305 305 305 305 305 305 304 305 304 304 304 304 304 305 305 305 305 305 305 304 304 304 303 303 303 303 304 305 306 308 310 312 314 315 316 318 320 321
314 309 308 309 309 309 309 308 308 308 308 309 309 309 309 309 309 309 309 308 308 307 307 306 306 306 305 305 305 305 305 305 305 304 304 304 305 305 305 305 305 305 305 305 305 304 304 303 303 302 302 302 303 304 305 307 310 311 313 315 316 317
316 312 309 309 309 309 309 309 308 308 308 309 309 309 309 309 310 310 309 309 308 308 307 307 307 306 306 306 306 305 305 305 305 305 305 305 305 305 305 305 305 305 305 305 305 304 304 303 303 303 303 302 302 302 303 304 306 308 312 314 315 316
318 315 311 309 309 309 309 309 309 308 308 309 309 309 310 310 310 310 310 310 309 309 308 308 307 307 307 306 306 306 306 305 306 305 305 305 305 305 305 305 305 305 305 305 304 304 304 303 303 303 303 303 302 302 302 302 303 304 307 310 313 315
318 317 314 310 309 309 310 309 309 309 308 309 309 310 310 310 310 311 310 310 310 309 309 308 308 308 307 307 307 306 306 306 306 306 305 305 305 304 304 304 305 305 305 305 304 304 304 303 303 303 302 303 303 303 303 303 302 302 303 304 308 311
318 318 317 313 311 310 309 309 309 310 309 309 310 310 310 311 311 311 311 311 311 311 310 309 309 309 308 308 307 307 307 306 306 306 306 306 305 305 304 304 304 304 304 304 304 304 303 303 303 302 302 302 302 303 303 303 303 303 303 302 304 306
319 318 318 316 312 310 309 309 309 310 310 310 310 310 311 311 311 311 311 311 311 311 311 311 310 309 309 309 308 307 307 307 307 307 306 306 306 305 304 304 304 304 304 304 304 303 303 303 302 302 302 302 302 302 302 302 302 303 303 303 304 304

ECMWFFLT2_850_thetae_030.txt.gz
Theta_e
338 338 339 337 338 337 336 337 338 338 337 337 336 335 334 333 333 332 331 332 332 333 333 331 331 332 332 331 331 330 327 324 324 324 323 321 319 318 317 317 317 318 321 324 324 324 325 324 324 326 327 329 329 330 330 331 332 331 331 327 319 317
337 337 338 336 337 337 336 336 336 337 337 336 336 335 335 334 334 334 333 333 332 332 333 332 330 331 331 331 330 330 327 324 323 324 323 323 321 318 317 317 316 316 318 322 324 325 325 324 322 323 326 326 328 331 332 332 332 330 331 329 323 317
337 336 336 336 336 336 336 336 335 335 336 335 335 334 336 335 334 336 335 334 333 332 334 334 332 330 330 330 329 329 328 326 325 324 324 324 322 319 319 318 317 315 316 319 323 326 327 326 323 321 323 326 327 330 332 331 331 332 331 329 327 321
337 334 335 335 335 335 335 335 334 336 336 334 334 334 336 336 334 337 336 335 335 335 336 335 332 330 330 330 330 329 328 327 327 326 325 324 323 321 319 320 320 317 316 319 323 327 328 328 326 320 321 327 327 327 330 330 330 332 331 330 329 324
337 336 335 334 335 336 334 335 336 338 338 334 337 337 336 337 336 337 335 335 335 335 336 334 331 330 331 332 333 331 328 328 328 327 326 325 326 327 323 324 326 323 321 322 324 327 328 328 327 321 320 326 326 324 327 331 331 331 331 330 329 326
337 336 336 335 336 337 335 337 338 339 339 337 339 338 336 338 337 336 335 334 335 334 335 334 330 329 331 333 333 331 329 330 330 329 328 327 329 331 328 327 329 329 327 325 322 325 327 328 328 324 321 325 326 325 328 331 331 331 331 331 329 326
337 337 338 337 337 336 335 336 337 337 338 338 338 337 336 335 335 334 335 334 334 334 336 335 332 329 332 334 332 329 329 331 333 332 331 330 332 333 330 328 329 330 329 325 321 323 326 327 328 326 325 324 324 327 329 330 332 331 330 330 328 326
338 337 338 337 337 337 336 336 335 335 336 335 335 336 335 335 334 333 334 333 332 333 333 334 333 331 333 335 331 328 329 331 332 333 333 333 333 332 329 328 328 327 328 325 318 321 326 327 327 327 327 325 323 326 328 329 331 332 331 330 328 327
337 337 337 337 338 338 338 337 336 336 336 336 335 334 335 335 334 333 333 333 332 331 331 332 332 332 334 334 329 328 330 330 329 330 332 333 334 333 329 328 327 326 327 325 319 321 326 327 326 327 327 325 324 326 328 327 329 331 330 330 329 328
334 335 334 334 335 336 335 336 336 335 335 336 336 335 335 335 335 334 332 333 334 333 331 330 329 332 334 332 327 327 328 328 328 328 329 329 331 333 330 328 327 326 327 326 324 323 324 326 326 326 327 326 325 326 327 327 328 331 330 329 329 329
328 328 328 327 328 329 329 330 331 331 332 334 335 333 333 334 335 334 333 332 333 333 331 330 328 329 331 329 327 327 327 327 328 330 329 328 328 329 329 329 327 326 328 328 327 325 322 324 326 326 326 326 325 326 327 327 328 330 330 329 329 327
325 324 325 325 323 323 324 324 325 325 327 329 329 329 329 331 331 333 334 333 332 331 332 332 329 327 328 329 328 327 328 328 330 330 330 329 328 328 329 329 327 326 327 326 327 326 322 322 325 326 327 326 326 326 326 327 328 329 330 330 329 326
324 322 323 324 322 322 323 324 324 324 324 324 324 325 327 328 328 329 332 333 332 332 332 332 330 328 328 329 329 329 330 330 331 331 331 330 330 330 329 329 328 326 325 325 324 324 323 322 324 326 326 327 327 326 326 327 328 328 329 329 329 327
318 317 319 320 319 321 322 322 322 322 323 322 323 325 326 328 327 327 329 331 332 332 332 332 330 329 329 329 330 330 331 331 332 331 331 331 331 331 330 330 330 327 325 325 322 322 324 325 324 325 325 326 328 327 326 327 327 328 328 328 328 328
313 313 314 314 314 316 315 316 321 322 322 322 324 325 324 325 326 326 327 327 328 330 331 332 332 331 330 330 330 331 331 332 332 332 332 332 331 331 331 331 331 328 326 325 323 323 326 326 326 326 325 325 327 327 327 327 327 327 328 328 327 328
312 312 312 312 312 312 312 316 321 322 320 321 321 321 321 322 324 324 323 325 326 328 329 330 331 331 331 331 331 331 331 331 332 332 332 332 332 332 332 331 331 330 326 324 324 325 326 327 326 327 326 326 326 325 326 327 327 327 326 327 327 327
312 312 312 311 311 314 316 318 321 320 318 319 319 320 319 319 321 321 322 324 325 326 327 328 329 329 329 330 330 330 331 331 331 332 332 332 332 332 332 332 331 331 328 326 325 326 326 326 326 326 326 326 324 323 324 326 327 327 327 327 327 328
311 311 311 310 311 315 316 318 319 319 317 317 318 319 318 320 322 322 322 323 323 325 326 327 327 327 328 329 328 329 330 330 329 331 331 331 332 332 332 332 331 332 330 328 327 327 327 325 324 325 327 327 324 323 322 324 325 325 326 327 327 327
310 310 310 310 311 314 316 318 318 318 318 319 319 318 319 322 323 322 322 320 319 321 323 323 324 324 326 327 327 327 327 329 328 329 331 331 332 332 332 332 332 332 331 329 328 328 327 326 325 324 327 329 327 326 324 325 326 324 324 326 327 326
310 310 309 309 312 317 321 321 320 321 321 321 321 319 320 322 323 322 321 320 318 318 317 316 317 319 321 320 321 323 322 325 326 326 329 330 331 331 331 332 332 332 332 331 329 328 327 326 326 325 326 327 327 328 327 326 328 328 325 325 326 326
310 310 308 311 316 320 323 321 321 322 321 320 319 316 318 321 321 318 318 318 317 315 311 309 311 315 317 314 315 321 320 319 322 322 325 327 329 330 331 332 332 331 331 331 330 329 328 326 326 325 325 324 323 323 326 326 327 328 327 327 326 327
310 309 308 311 315 317 318 319 321 320 320 320 319 319 320 319 315 310 310 310 309 310 309 310 313 315 318 316 315 320 320 318 320 321 322 325 328 330 331 331 331 331 331 331 331 330 329 327 327 326 325 325 324 323 323 323 324 326 328 328 327 328
310 309 308 309 311 312 311 312 315 314 314 316 315 316 317 313 309 307 306 305 305 308 313 318 319 318 321 320 319 321 321 320 321 321 322 324 327 329 330 330 330 331 331 331 331 331 330 328 328 327 327 328 328 327 326 324 323 326 328 328 328 329
310 309 308 308 309 309 306 307 309 308 308 311 309 308 309 307 307 307 305 305 305 305 313 319 320 320 320 320 320 320 320 321 321 320 322 323 325 327 328 329 329 329 330 330 330 330 330 329 329 329 329 329 328 327 327 325 324 327 329 329 329 329
310 308 307 307 307 307 307 306 307 307 307 308 307 306 309 308 307 307 306 306 305 304 309 314 318 320 320 319 319 319 319 320 320 320 321 321 322 323 324 326 327 328 328 328 329 329 329 329 329 329 329 329 328 326 327 325 323 325 327 328 330 330
310 309 308 308 307 306 308 307 307 308 308 309 310 312 314 310 308 308 307 306 306 306 306 309 313 315 315 316 317 317 317 318 318 317 317 318 319 320 320 321 323 325 325 326 327 327 328 328 328 329 329 329 329 328 328 326 323 323 325 327 329 329
311 309 308 308 307 307 308 308 308 308 309 312 315 315 312 309 308 308 307 306 306 306 306 306 308 308 307 308 310 311 312 313 313 311 310 311 311 312 313 314 315 317 320 322 324 325 326 326 326 326 327 327 328 328 328 328 326 325 327 328 328 328
312 310 309 309 308 308 308 308 308 308 309 314 315 311 308 307 308 307 307 307 307 306 306 306 306 306 305 305 305 305 306 306 307 307 306 305 305 305 305 306 307 308 311 315 319 321 322 323 324 324 324 324 326 326 327 327 328 327 328 328 328 328
313 310 308 309 308 308 309 308 308 308 309 312 313 310 309 308 308 307 307 307 306 306 306 306 306 306 306 305 305 305 304 304 304 306 306 305 304 305 304 305 305 304 305 306 308 311 314 317 319 320 321 322 323 324 325 325 326 326 326 326 327 327
314 311 309 309 309 308 309 308 308 308 308 310 311 310 311 309 307 308 307 307 307 307 306 306 306 305 305 306 305 305 305 305 305 305 306 305 305 306 305 305 305 305 305 305 304 304 305 308 309 310 313 318 320 321 322 323 322 322 323 324 324 325
315 313 310 309 309 309 309 308 308 308 308 308 309 309 310 309 308 308 308 307 308 308 308 307 306 306 306 305 305 305 305 305 305 305 305 305 305 306 306 306 306 306 306 305 305 305 304 304 304 303 305 310 315 316 316 319 320 320 321 321 322 322
315 313 311 309 309 309 308 308 308 308 309 309 309 309 309 309 308 308 309 309 309 310 309 308 307 306 306 305 306 305 305 305 305 305 305 305 305 306 305 306 306 306 306 306 305 305 305 305 304 304 304 304 306 307 308 311 314 314 316 318 319 319
316 315 313 309 308 309 309 308 308 309 308 308 309 308 309 311 310 310 312 310 310 311 310 309 307 306 306 306 306 305 305 305 305 305 305 305 305 305 305 305 306 305 305 305 305 305 305 304 304 304 304 304 305 306 305 305 305 306 309 312 315 318
317 316 315 311 308 309 309 309 308 308 308 308 309 308 310 312 311 312 314 312 310 312 312 310 308 308 307 306 306 306 306 306 306 305 305 305 305 305 305 305 305 305 305 305 305 305 304 304 304 303 304 304 304 306 305 304 304 305 308 311 314 317
318 317 317 314 310 308 309 309 308 308 308 308 309 308 309 312 312 311 313 312 311 312 313 312 311 309 307 307 306 307 306 306 306 306 306 306 305 305 305 305 305 304 305 305 305 304 304 304 303 303 303 303 304 305 304 304 305 307 309 310 310 313
318 317 318 316 312 309 308 309 309 308 308 308 309 309 309 310 310 310 311 311 311 312 313 313 312 310 307 307 307 307 307 307 307 307 306 306 306 306 305 304 304 304 304 304 304 304 304 304 304 303 303 302 304 306 303 303 305 306 306 306 306 309
318 317 318 317 314 309 308 309 309 309 309 308 308 308 309 309 309 310 311 311 312 312 312 313 313 310 309 308 307 307 307 307 307 307 307 307 307 307 306 305 305 304 304 304 304 304 304 304 303 303 303 302 303 304 303 302 304 304 303 303 305 308

ECMWFFLT2_850_thetae_033.txt.gz
Theta_e
341 340 338 338 338 338 336 336 336 335 334 333 332 331 331 330 331 332 332 333 332 333 333 331 331 331 332 332 331 330 329 328 326 326 326 326 324 321 319 318 317 316 315 317 320 323 323 322 322 325 328 330 329 327 326 330 333 331 332 331 330 328
340 339 338 337 338 338 338 338 338 336 336 335 334 333 332 332 332 332 332 333 332 332 332 331 332 331 331 332 332 331 329 328 326 325 325 325 323 321 319 319 319 317 314 315 319 322 323 323 321 321 326 328 328 330 332 333 332 331 331 332 330 324
340 339 338 338 338 338 338 338 337 336 337 337 336 335 335 334 334 334 333 333 332 332 332 332 331 330 331 331 331 331 329 327 324 324 325 324 322 321 320 320 320 318 316 314 315 322 327 326 324 321 322 325 328 332 334 332 331 332 332 332 330 324
340 339 338 337 337 337 337 336 335 336 337 338 337 336 336 336 335 336 336 335 333 332 331 330 329 330 330 330 331 330 329 327 324 324 324 325 325 323 321 320 321 319 317 316 317 325 330 329 328 324 322 324 329 333 333 333 333 333 332 332 330 324
340 339 337 337 338 337 336 335 334 334 335 336 336 335 336 336 335 335 335 335 334 332 330 329 329 329 330 330 330 330 329 328 327 327 325 326 329 327 324 324 325 323 321 324 326 328 330 329 329 328 326 327 330 331 332 334 334 333 332 332 331 324
340 339 337 337 337 337 337 337 334 333 333 334 334 334 335 335 334 333 332 333 333 331 329 330 329 329 330 330 331 331 330 330 329 330 328 328 331 330 328 329 330 329 327 329 329 329 330 330 329 328 328 328 329 330 331 333 334 334 333 332 331 326
339 339 337 336 336 336 336 336 335 334 333 332 332 333 334 335 334 332 330 332 333 331 329 330 328 326 329 331 332 332 331 331 331 332 331 330 332 332 330 331 331 331 331 330 329 329 330 330 330 328 327 327 328 328 330 332 333 334 334 333 330 325
339 339 338 336 334 335 335 334 334 335 333 331 331 331 334 334 332 331 331 333 333 332 331 332 330 327 328 330 331 333 332 333 333 332 331 330 331 331 330 331 331 330 331 331 330 329 329 329 330 328 327 327 328 327 329 331 333 334 334 334 331 325
340 340 341 338 335 334 333 333 333 334 333 331 331 331 333 334 331 331 333 332 333 332 332 332 331 331 331 330 331 333 332 332 333 332 332 332 330 331 331 331 331 331 331 331 330 329 328 328 329 328 328 328 328 327 327 330 332 334 334 334 332 327
338 338 341 339 337 336 335 335 334 334 334 333 333 332 333 334 333 333 334 333 332 332 332 331 330 332 333 333 333 333 332 333 333 332 332 331 330 331 331 330 330 331 331 331 330 329 328 328 328 328 327 327 328 326 326 329 331 333 334 334 334 331
336 334 336 336 334 334 335 335 334 334 335 334 333 333 333 333 332 333 334 333 333 332 332 332 330 331 332 332 333 333 333 334 333 333 333 332 330 330 331 330 329 330 331 331 330 329 328 327 327 327 327 326 326 326 326 328 329 331 332 333 333 332
333 330 331 332 331 331 332 332 331 332 333 332 332 333 333 333 331 330 332 333 332 333 333 333 332 331 332 332 333 333 334 334 334 335 334 333 331 329 329 329 328 330 331 330 330 329 328 327 326 326 326 326 325 326 327 328 328 329 330 331 332 332
328 326 325 328 328 328 329 329 330 329 330 329 330 332 333 333 330 327 328 329 330 332 333 333 332 332 332 332 334 334 334 334 334 334 333 332 331 330 329 328 328 330 329 328 329 329 328 326 325 326 326 327 326 326 327 327 327 328 329 330 331 332
323 321 320 319 320 327 329 327 329 329 328 327 328 331 330 332 331 327 326 327 328 330 331 332 333 332 331 332 334 333 332 333 334 333 332 331 331 331 330 330 330 330 330 328 327 328 328 326 326 325 326 327 327 327 327 327 327 328 329 330 330 331
316 316 317 315 316 325 327 325 328 328 326 326 328 329 329 331 331 330 329 328 327 328 329 331 332 333 332 332 335 333 331 332 333 332 332 332 332 332 332 332 331 331 331 329 327 327 327 326 327 326 327 328 328 328 328 327 327 327 328 329 329 329
311 314 315 314 313 316 317 321 326 324 323 325 328 328 328 329 329 330 329 329 328 328 329 330 331 333 333 332 334 333 333 332 331 331 332 333 332 331 331 331 331 332 331 330 328 327 327 327 328 328 329 330 329 330 329 328 328 327 327 328 328 329
312 314 314 312 314 315 317 323 325 323 323 325 326 327 327 327 327 328 328 328 328 327 328 329 330 331 331 332 333 332 332 332 331 331 332 332 332 331 330 330 331 331 331 330 329 328 328 329 330 330 331 330 329 330 330 329 328 328 327 327 327 327
313 314 313 311 316 321 323 324 324 323 322 322 324 326 326 326 326 327 328 327 327 327 327 328 329 330 329 330 331 332 332 331 331 331 331 330 330 331 331 330 330 329 330 331 330 329 329 330 331 332 332 330 329 329 330 330 330 329 328 327 327 327
313 314 311 309 315 322 323 322 322 322 321 322 324 325 325 326 326 325 326 326 326 326 326 327 327 328 329 329 330 330 330 330 330 330 329 329 329 330 331 330 330 329 330 330 330 330 330 331 331 331 331 329 329 329 329 329 330 330 329 328 327 328
313 313 311 313 320 324 325 324 324 324 323 324 324 324 325 325 325 325 326 325 325 325 324 323 324 326 326 325 326 327 328 329 329 329 329 328 328 329 330 330 330 330 330 330 330 330 330 331 331 331 330 329 329 329 328 326 326 329 330 329 328 328
312 310 314 322 326 326 326 325 324 324 324 324 323 323 324 325 325 322 321 321 320 320 316 312 317 323 322 320 322 325 326 326 327 327 328 328 328 329 329 329 330 331 330 330 330 329 330 330 330 330 329 328 327 326 326 324 324 326 328 329 329 327
311 310 316 325 326 324 325 323 323 323 322 322 322 323 324 324 323 316 310 310 310 310 312 312 316 320 321 322 322 324 324 324 325 326 326 327 327 328 330 330 330 330 329 329 330 329 329 328 329 330 329 329 327 325 324 323 323 324 323 326 328 327
310 310 314 320 324 324 323 322 323 322 321 323 323 323 323 322 321 315 308 309 309 311 318 321 320 320 322 323 323 323 323 323 325 324 324 326 326 327 329 329 329 330 329 328 329 329 329 328 329 329 329 328 327 326 325 324 324 324 323 323 325 327
311 312 311 313 320 321 317 317 319 318 319 321 320 318 317 317 317 314 311 311 310 314 322 323 321 322 322 322 322 322 322 322 323 324 324 325 326 326 328 329 330 330 330 329 329 329 329 329 329 328 328 328 327 327 328 327 325 325 324 323 323 325
312 311 309 310 314 313 310 309 311 310 312 314 315 316 318 318 317 316 315 311 309 314 320 322 322 322 321 321 321 320 320 321 321 322 322 322 323 324 325 326 328 328 328 328 328 328 329 329 329 329 328 328 329 328 328 326 325 324 324 324 324 325
313 311 309 309 310 308 308 308 309 310 312 314 317 320 321 320 319 319 316 311 311 313 317 320 322 321 320 321 321 320 320 320 320 321 320 321 321 321 322 323 324 326 326 326 327 328 328 327 328 329 328 328 329 329 328 326 325 325 323 323 324 323
314 312 310 309 309 308 309 309 312 315 316 317 320 321 321 321 320 318 312 309 310 311 314 317 317 317 317 319 318 318 319 318 318 317 317 318 318 318 319 316 315 320 322 323 326 326 326 326 326 327 327 327 327 327 328 328 327 326 325 326 327 325
317 313 310 310 309 309 310 313 316 318 318 318 321 320 319 320 318 314 310 311 313 313 314 315 315 316 316 315 313 313 314 315 315 314 314 314 313 313 313 309 306 309 312 314 319 320 323 324 324 325 325 325 326 326 326 327 328 327 326 327 328 328
318 314 310 310 309 308 312 317 318 319 318 320 320 319 319 318 316 312 309 312 316 316 314 313 312 313 314 312 311 310 310 312 313 313 313 311 309 307 307 306 305 305 305 306 308 310 316 319 319 320 322 322 322 324 324 324 325 325 325 326 327 327
319 316 311 309 309 308 312 318 320 319 318 319 318 318 318 318 317 314 313 313 316 316 315 312 309 309 311 311 310 310 308 307 309 311 311 310 309 307 306 306 306 306 306 306 304 305 307 310 310 310 313 319 320 321 323 322 322 323 323 324 325 325
319 318 313 309 310 309 309 316 320 319 318 319 318 318 319 318 318 317 317 316 317 318 317 313 309 308 309 308 307 308 307 306 307 308 311 313 312 310 308 307 307 306 306 306 306 306 305 306 308 307 307 314 318 318 319 320 321 321 321 322 322 323
319 318 315 310 310 310 308 313 321 320 319 319 316 317 320 319 318 319 318 318 318 318 318 314 311 310 308 307 307 306 306 307 306 306 308 311 312 311 310 308 307 306 307 306 306 306 305 305 309 310 307 307 313 316 317 317 317 318 318 319 319 319
320 319 316 311 309 310 308 310 319 321 319 318 314 314 319 319 318 319 318 318 318 318 319 317 315 314 309 307 308 307 308 308 306 306 306 306 308 308 309 309 306 306 307 306 306 306 305 304 305 309 310 310 312 314 315 312 311 314 315 315 316 318
320 319 317 314 309 309 309 309 315 320 320 318 313 311 316 318 317 318 319 319 317 318 319 317 317 317 312 310 312 310 309 309 306 306 306 306 306 305 308 311 308 306 306 306 306 306 305 305 304 304 307 311 312 311 311 311 311 314 316 316 316 317
322 321 318 316 311 308 309 308 311 317 320 320 317 313 315 318 317 317 318 319 318 317 318 317 317 318 313 311 314 311 308 308 306 306 307 306 307 306 307 310 308 305 306 306 306 306 305 305 304 304 303 306 313 312 308 309 313 314 314 315 314 313
325 325 321 319 315 310 309 309 309 314 318 320 319 317 316 318 318 316 317 319 318 317 318 318 318 318 314 311 312 310 309 309 307 307 307 306 308 308 306 309 308 306 306 306 306 306 306 306 304 305 303 304 312 312 304 305 310 310 309 309 311 312
326 327 325 322 319 315 311 310 309 310 315 318 320 320 318 318 319 318 317 318 318 317 317 317 318 318 314 310 311 310 309 310 308 308 308 307 309 308 307 309 308 307 307 306 306 306 306 306 305 305 304 303 308 309 304 304 306 305 304 304 307 312

ECMWFFLT2_850_thetae_036.txt.gz
Theta_e
338 337 336 335 334 333 332 331 331 331 331 331 331 331 332 332 332 332 332 331 332 333 333 332 331 330 330 330 331 330 330 329 327 325 324 324 325 324 321 319 318 317 316 316 318 321 323 323 322 325 327 326 326 323 321 327 333 332 332 330 329 329
340 339 338 337 337 336 334 332 332 332 332 331 332 332 332 333 332 330 330 331 331 332 332 332 332 331 331 331 331 331 330 330 328 326 324 324 324 323 321 319 319 318 316 315 316 317 320 322 321 322 327 328 327 326 322 326 333 331 330 331 330 329
340 340 339 338 338 338 336 334 334 334 333 333 333 332 333 332 331 328 329 331 331 332 332 332 332 332 331 331 331 331 331 330 329 327 325 324 323 321 321 319 320 320 317 316 315 316 318 322 324 321 323 327 328 328 325 326 331 332 331 331 330 329
340 340 339 337 337 338 337 337 337 336 335 335 334 333 333 332 332 329 328 329 329 330 331 331 332 333 332 332 331 331 331 331 329 328 326 325 324 322 322 320 320 320 320 317 314 317 322 326 328 326 323 324 328 330 329 329 330 333 333 332 331 330
340 340 339 337 338 338 337 337 337 337 336 335 335 334 333 332 332 330 327 327 327 329 330 331 331 331 332 332 332 331 331 330 330 328 327 326 326 326 324 321 323 323 322 321 318 322 328 329 329 329 325 323 327 332 332 331 330 333 334 333 332 331
339 339 338 337 337 335 336 336 336 336 335 334 335 335 333 332 332 330 328 328 329 330 330 330 330 330 331 332 332 331 330 330 329 328 328 328 327 329 328 325 329 329 327 327 327 327 329 329 329 330 329 324 327 331 331 332 332 333 334 333 333 332
339 338 337 335 333 333 334 334 333 334 334 333 333 332 332 332 332 332 331 331 331 331 330 330 329 329 331 331 331 331 331 330 330 329 329 330 329 330 331 330 331 332 330 330 330 330 329 327 329 330 329 326 327 330 330 331 332 333 334 333 333 332
339 337 336 334 330 331 333 331 331 332 333 334 333 331 332 333 333 332 331 331 331 331 330 330 330 330 330 330 330 331 331 330 330 330 330 331 331 331 331 331 331 331 331 331 330 330 329 328 328 329 329 327 327 329 329 330 332 332 334 334 333 332
337 336 335 333 330 328 329 328 331 333 334 334 334 333 333 333 333 332 331 329 330 331 331 331 331 331 329 330 330 331 332 331 331 332 332 331 331 331 331 331 331 330 330 331 331 330 330 329 328 329 330 328 327 327 328 330 331 332 334 334 334 332
337 335 334 335 333 330 327 327 330 332 333 333 333 333 332 333 333 333 332 330 329 331 331 331 330 330 330 330 331 331 331 332 333 333 333 332 332 331 330 331 331 330 330 331 331 330 330 329 328 328 328 329 328 327 327 328 330 332 334 335 334 333
336 335 334 335 334 333 331 330 330 331 331 331 330 330 329 331 332 332 332 331 331 332 332 330 329 330 331 331 332 332 331 332 333 332 332 332 332 331 330 331 331 331 331 331 331 330 330 329 328 328 327 327 327 327 326 326 329 331 332 334 334 334
335 333 332 331 331 331 331 330 329 330 330 329 327 327 327 328 330 330 331 332 331 331 332 331 329 328 329 330 332 333 332 332 332 332 330 330 330 330 330 331 330 330 331 331 331 330 329 328 328 328 327 326 326 326 326 325 327 329 331 333 333 333
334 332 332 331 329 328 328 329 329 328 329 329 327 327 328 327 329 329 329 330 330 330 331 331 329 328 329 330 331 332 331 331 331 331 331 330 327 327 328 329 328 327 329 331 330 330 329 328 327 327 327 327 326 326 326 326 326 327 329 331 331 332
333 333 332 330 329 329 327 328 327 327 328 328 327 328 327 327 328 329 329 329 329 329 330 330 329 329 330 330 331 331 330 330 330 330 329 328 326 326 326 327 327 328 329 330 330 329 329 329 327 326 326 326 326 325 326 326 326 326 328 329 330 331
331 329 326 325 328 329 328 328 329 328 328 328 329 328 327 325 326 328 329 328 329 329 329 329 330 330 331 332 331 330 330 331 330 329 328 327 327 327 326 326 328 330 329 329 330 329 329 329 329 327 326 326 327 326 327 327 326 326 327 328 329 330
320 319 317 317 319 319 320 324 326 326 326 328 329 328 327 325 325 327 328 329 330 329 328 328 329 331 331 331 331 330 331 332 331 330 330 329 329 327 327 328 329 331 330 330 330 329 329 328 329 328 326 327 328 327 328 328 327 327 327 327 328 329
311 312 311 311 312 311 314 319 321 323 325 328 328 328 327 326 326 327 327 329 330 330 329 329 330 331 330 331 331 331 332 331 331 331 331 331 330 329 330 330 330 331 331 331 331 330 329 328 329 329 327 329 329 329 328 329 328 328 327 326 326 327
311 311 310 310 311 312 317 324 323 321 324 326 326 326 326 326 327 327 326 327 328 330 329 329 330 331 330 330 331 330 331 331 330 330 330 331 331 331 331 331 330 330 331 331 331 330 329 329 329 329 327 328 330 329 329 329 329 328 327 326 326 327
312 311 311 310 313 314 320 325 323 321 323 324 324 324 326 326 325 326 326 326 327 327 327 327 328 329 329 329 329 328 328 329 329 330 329 329 330 330 331 331 330 330 330 330 330 330 329 329 329 328 326 327 329 328 328 328 328 328 328 327 327 326
312 312 310 312 318 322 324 324 324 325 325 325 324 324 325 326 325 325 326 326 326 326 326 326 326 327 326 325 326 327 326 327 328 328 328 328 329 329 329 330 330 330 330 330 330 330 330 329 330 329 327 327 329 328 328 327 326 326 327 328 328 327
313 311 311 318 325 327 327 325 325 325 323 324 323 322 324 325 324 323 323 322 322 323 323 323 323 324 323 321 323 325 324 325 327 327 327 328 327 328 328 328 329 330 329 330 330 330 330 329 329 329 328 327 328 328 328 327 325 324 325 326 327 328
312 311 315 323 326 326 326 324 323 323 323 323 323 324 325 323 320 316 315 315 315 320 322 321 319 320 322 322 322 323 322 322 325 326 327 328 327 327 327 328 329 329 329 329 329 330 330 329 329 329 327 327 328 327 327 326 324 323 323 323 324 327
311 311 316 322 323 323 324 323 322 322 323 323 324 325 322 320 318 314 314 314 315 321 324 322 320 320 323 323 321 322 323 323 324 325 326 327 326 326 327 327 328 329 328 328 329 329 329 329 329 328 327 327 328 327 326 326 325 324 323 322 322 324
312 311 313 316 317 317 317 319 320 320 322 322 319 319 316 316 318 317 315 313 315 322 324 322 322 322 322 321 321 322 322 322 323 323 324 324 324 325 325 326 327 327 327 328 329 329 329 328 328 328 328 328 328 327 327 326 325 324 323 323 323 322
312 311 311 313 313 312 311 312 314 314 317 315 311 316 318 317 319 321 317 314 317 322 322 322 323 322 321 320 320 321 320 320 321 322 322 322 322 323 323 324 326 326 326 327 328 328 328 328 328 329 328 328 328 328 328 327 325 324 324 323 323 323
312 311 311 311 311 311 310 310 309 309 311 312 313 320 321 319 321 321 316 315 318 319 319 321 321 319 320 320 320 320 320 318 317 319 320 320 321 321 322 324 324 324 324 326 326 326 327 327 327 328 327 327 328 328 328 328 326 325 324 323 322 324
312 311 311 311 311 311 310 309 309 310 313 316 320 322 320 318 319 315 310 310 311 313 315 315 315 315 315 316 316 317 318 316 314 315 314 314 316 316 317 317 317 322 325 324 325 324 324 325 325 325 325 326 326 326 327 328 327 326 325 324 324 324
313 312 311 311 311 310 311 309 311 315 318 320 322 321 317 315 312 308 308 311 311 311 313 313 314 315 312 309 310 313 315 314 314 314 312 309 308 308 308 306 308 317 319 319 323 325 323 324 324 323 323 323 323 323 325 325 326 326 325 325 326 326
315 312 311 311 310 311 311 309 313 318 319 321 320 317 313 311 309 307 309 314 315 310 309 310 310 312 310 307 308 310 313 314 315 314 311 307 306 306 306 304 305 308 307 308 317 320 318 321 323 322 320 320 321 321 322 323 323 324 325 325 325 326
317 314 311 311 310 311 311 309 313 318 320 321 318 315 314 310 308 309 308 310 312 310 308 308 307 309 309 307 307 307 309 311 312 314 312 308 306 306 306 306 306 306 306 306 307 308 309 312 316 317 316 318 320 320 321 323 323 322 322 322 323 324
319 316 312 311 310 310 311 310 312 317 321 321 316 315 315 310 308 309 308 310 314 314 311 308 307 308 307 307 307 306 307 307 308 311 312 312 310 308 306 307 307 306 307 307 306 306 306 306 307 309 312 316 317 318 319 321 321 321 320 320 321 321
321 318 314 312 310 310 311 310 311 316 321 320 314 315 314 309 309 310 310 314 318 317 313 309 308 308 307 307 307 306 306 307 306 307 308 311 312 309 306 306 307 307 307 306 307 306 306 306 306 306 310 313 315 316 316 316 316 316 315 314 315 316
322 320 316 313 310 310 310 311 311 315 321 320 315 315 313 309 311 311 311 316 319 318 316 312 309 308 308 307 307 307 307 306 307 306 306 307 308 309 311 309 306 306 307 306 307 306 306 306 305 306 308 310 312 313 311 309 311 313 313 312 314 317
325 321 318 314 310 309 309 311 312 314 319 320 317 316 314 310 310 312 313 316 318 319 319 316 313 310 308 308 308 308 308 307 307 307 307 307 306 309 314 312 307 306 306 306 306 306 306 305 304 305 306 308 310 307 305 307 311 315 316 313 313 314
327 324 321 316 312 310 309 311 312 313 316 318 316 316 317 313 311 314 316 316 317 319 319 318 316 312 309 308 308 308 308 308 308 307 307 308 307 307 310 310 307 307 306 306 306 306 306 305 305 304 304 309 310 304 303 307 309 311 311 309 310 310
328 326 324 319 313 310 309 310 312 313 316 317 315 314 318 318 314 315 319 318 316 317 319 319 317 314 310 309 308 309 309 308 308 308 308 308 308 308 307 308 308 307 307 307 306 306 306 306 305 304 304 307 307 303 303 305 304 304 304 305 309 312
328 328 327 322 315 311 309 310 312 314 317 319 317 314 316 319 317 316 318 320 317 316 317 318 317 314 311 309 309 309 309 309 309 308 308 308 308 308 308 308 308 308 308 308 307 306 306 306 306 306 305 304 304 303 303 304 303 303 303 302 305 309

ECMWFFLT2_850_thetae_042.txt.gz
Theta_e
329 329 329 330 330 331 331 332 332 332 332 332 331 331 330 330 330 330 330 330 330 330 329 329 329 329 329 328 328 328 328 328 326 325 324 324 324 324 321 319 318 317 316 317 318 318 317 319 320 321 326 332 333 332 333 333 332 332 331 330 331 331
330 330 329 330 330 330 331 332 332 332 332 332 332 331 331 330 331 331 331 330 331 331 331 330 330 330 330 329 329 329 329 330 328 326 325 324 324 324 321 319 319 318 317 315 316 319 317 317 320 321 325 331 332 332 331 333 332 331 331 331 332 331
332 330 330 330 330 331 331 331 332 331 331 331 331 331 331 331 331 331 330 330 331 331 331 331 330 331 330 330 329 330 330 330 329 328 327 325 324 323 321 319 320 320 319 318 314 317 320 317 318 322 327 331 330 329 329 332 333 330 331 332 331 331
332 332 331 330 330 331 331 331 331 331 331 331 331 330 330 330 330 330 331 330 330 331 331 331 331 331 331 331 331 330 330 330 329 329 328 326 325 324 322 320 321 320 321 322 315 314 321 320 317 319 324 328 327 327 328 330 332 332 332 332 331 331
334 333 332 331 331 331 332 332 331 331 331 331 330 331 330 330 330 330 330 329 329 330 331 330 331 331 331 331 331 330 330 330 329 329 329 327 325 325 324 322 321 322 324 323 315 317 325 325 322 319 319 323 324 326 329 329 330 332 333 332 331 332
336 335 334 332 332 332 333 333 332 332 332 331 331 332 331 331 331 330 330 329 328 329 329 329 330 331 331 331 331 330 330 330 329 328 329 328 327 325 326 325 323 326 327 322 319 323 327 327 326 323 319 320 322 324 327 328 330 332 333 332 332 332
337 336 335 334 334 334 334 333 333 333 333 333 333 333 332 332 331 331 330 329 328 327 327 328 330 330 330 331 331 330 329 330 330 329 328 328 328 326 327 328 326 329 328 324 325 327 327 327 327 326 323 323 325 324 325 326 328 331 332 332 332 332
336 337 337 336 335 336 335 334 334 334 334 333 333 333 332 331 331 332 330 329 328 327 328 330 330 330 329 330 329 330 329 329 330 329 329 328 328 328 328 329 328 331 330 326 327 328 327 327 328 328 326 325 327 326 326 326 327 329 331 331 331 332
333 336 337 336 336 335 335 334 335 334 333 332 331 332 331 329 331 332 331 330 330 330 330 330 330 330 328 329 328 328 328 328 329 330 330 329 328 329 329 329 329 330 330 328 327 328 328 328 328 328 328 327 327 326 327 328 329 328 329 330 330 330
333 337 337 336 336 335 334 333 333 332 332 331 331 331 330 330 330 332 332 331 331 331 330 330 330 329 328 329 329 327 327 328 330 330 330 330 329 329 329 330 330 329 330 329 329 328 329 329 329 328 328 328 327 327 327 328 329 328 328 329 330 329
336 338 337 336 335 334 333 332 331 332 332 331 331 331 331 330 331 332 332 332 331 331 330 330 330 329 330 330 329 328 328 329 330 330 330 330 330 330 330 330 330 329 329 330 330 329 329 329 329 328 328 329 328 327 327 327 328 327 327 329 329 329
337 337 336 335 333 332 331 331 331 331 332 331 331 331 331 332 331 332 333 332 331 331 330 330 331 330 331 331 329 329 329 330 330 330 330 330 330 330 330 330 330 329 329 330 330 330 329 329 328 328 328 328 328 328 327 327 327 327 327 327 327 327
337 336 335 333 331 331 330 331 332 331 331 331 329 329 330 330 330 332 332 331 331 331 330 331 331 332 332 330 329 330 331 331 331 331 331 330 329 330 330 330 330 329 330 330 330 330 329 329 329 328 327 327 328 328 328 327 327 327 326 326 327 328
336 335 333 332 331 331 330 330 330 329 329 329 327 326 327 327 328 330 331 331 331 331 330 331 331 332 331 330 330 331 331 331 331 331 331 331 330 329 329 329 329 330 330 329 329 330 329 329 329 328 327 327 327 327 327 327 327 327 326 327 329 329
334 333 331 331 331 329 328 328 327 327 327 327 326 326 326 326 328 330 330 329 329 329 329 330 331 331 331 331 330 330 331 331 331 331 331 331 330 330 329 328 328 328 329 329 329 329 330 329 328 328 327 327 326 326 326 326 327 327 326 328 329 328
333 331 330 329 328 327 327 326 326 326 326 325 326 326 326 326 328 329 329 329 328 329 329 330 331 331 331 330 330 330 331 330 331 331 330 330 330 330 329 328 327 327 328 329 329 328 328 329 329 328 327 327 326 326 326 326 327 326 326 326 326 326
331 329 327 326 326 326 326 325 325 325 325 325 325 325 325 325 328 329 329 328 328 328 329 329 329 330 330 330 330 331 330 331 331 331 330 330 330 330 329 329 328 326 326 327 328 328 328 328 329 329 328 327 327 327 326 326 326 326 325 326 325 325
329 327 325 324 322 323 325 325 326 326 324 326 326 325 325 325 326 326 327 327 329 329 328 329 329 330 330 330 330 329 329 330 330 330 331 330 330 329 330 330 329 327 327 329 329 329 329 329 329 329 329 328 328 327 327 327 327 327 327 326 326 325
328 327 324 320 320 322 324 325 326 326 325 326 326 325 325 325 324 323 322 324 328 328 327 328 328 328 328 328 328 327 327 327 328 329 330 330 329 329 330 330 329 328 329 330 330 330 330 330 330 329 329 328 328 327 327 327 327 327 328 328 327 326
327 325 320 317 318 320 323 324 324 324 324 325 326 326 326 325 324 324 322 323 325 326 326 326 326 327 327 327 326 326 325 325 327 328 328 328 328 328 329 329 330 329 329 329 329 330 330 330 330 329 328 328 327 326 326 327 327 326 327 328 328 327
325 323 318 317 320 321 323 324 324 324 324 325 325 326 326 325 325 325 323 323 325 325 325 325 325 324 323 324 324 324 323 322 324 326 327 327 327 328 329 329 329 329 329 329 329 329 330 330 330 329 329 328 327 326 327 327 327 326 325 327 328 328
324 325 323 321 320 320 320 320 321 323 324 325 325 325 325 325 324 323 323 323 322 324 325 325 325 320 317 321 321 318 317 319 323 324 325 325 325 326 327 328 328 327 328 328 329 329 329 329 330 329 329 329 328 327 327 327 328 327 325 325 327 328
320 323 323 318 315 315 315 316 318 319 320 322 324 324 323 323 323 323 322 319 316 318 321 321 321 317 316 320 320 316 315 318 321 323 323 324 323 324 325 325 325 326 327 327 328 329 328 329 328 329 329 329 329 328 327 326 327 327 326 325 325 326
313 315 315 314 313 315 315 318 319 318 318 318 320 321 320 320 321 319 314 311 312 315 317 317 319 318 319 321 321 320 320 319 321 322 323 323 323 323 323 324 325 325 326 326 327 327 327 328 328 328 328 329 329 328 327 326 326 327 326 325 324 323
312 314 317 318 319 317 318 320 321 320 319 317 317 316 314 315 314 310 308 310 314 317 317 318 319 320 321 322 321 322 322 322 322 322 322 322 323 324 324 324 324 325 325 326 327 326 326 327 327 328 328 328 328 327 327 326 326 326 326 325 324 323
320 322 323 323 321 319 319 320 319 319 319 318 318 313 308 309 308 307 309 312 315 318 319 319 320 321 320 321 321 321 321 321 322 322 321 321 321 322 324 324 324 324 325 325 326 325 326 326 327 327 328 328 327 327 327 327 326 326 325 324 323 322
325 325 325 323 323 321 320 319 316 316 316 315 314 310 307 307 307 307 308 309 312 316 318 319 319 319 320 320 320 319 319 320 320 321 321 321 320 317 320 324 323 324 325 324 325 325 325 327 327 328 328 328 327 327 327 327 326 325 325 324 324 323
326 324 323 322 323 322 319 319 317 317 316 312 310 308 308 307 307 307 307 307 308 310 312 312 312 314 318 320 319 316 316 317 319 320 319 317 315 312 317 322 321 321 325 324 324 325 324 326 325 326 326 326 326 326 327 327 327 326 325 325 325 324
326 325 323 322 323 322 320 319 319 320 316 310 309 308 307 307 307 307 307 306 307 306 307 307 307 309 315 318 317 313 312 314 316 316 312 308 307 307 315 321 318 317 320 320 322 324 323 324 324 323 323 323 324 324 325 326 326 327 326 325 325 324
323 326 323 322 323 322 321 320 319 319 314 308 308 308 307 307 307 307 307 307 307 306 307 306 306 308 311 313 313 310 309 309 309 309 307 305 305 306 310 313 312 312 314 314 317 320 318 319 322 321 321 321 322 323 323 323 324 324 325 324 324 323
319 325 324 321 321 322 321 318 316 314 310 308 308 308 308 307 307 307 307 307 307 307 307 307 306 307 309 309 308 307 307 306 307 307 307 306 307 306 306 307 307 308 310 310 312 312 310 315 319 319 317 316 318 321 322 322 321 321 322 322 323 322
319 322 324 321 318 317 316 313 311 309 309 309 308 308 309 307 307 307 307 307 307 306 306 306 307 307 307 307 307 307 307 307 307 307 307 307 306 306 306 306 306 306 307 307 307 307 308 313 317 316 314 315 316 318 319 319 319 318 318 318 317 316
324 320 321 320 317 312 310 309 309 310 310 309 308 308 308 308 308 307 307 307 306 307 306 306 307 307 306 307 306 306 306 307 307 307 307 307 306 306 306 306 307 306 306 306 305 306 307 310 312 312 312 313 315 316 318 318 316 313 312 311 309 308
329 323 319 319 315 310 309 309 310 313 314 310 308 308 309 308 308 308 307 307 307 307 307 307 307 307 307 307 307 306 307 307 307 307 307 307 306 306 306 306 306 306 306 306 305 305 305 306 307 308 308 308 309 310 312 312 310 307 306 306 305 306
329 325 323 320 315 309 310 310 312 316 318 315 311 308 308 309 308 308 308 308 307 307 307 307 307 307 307 307 307 307 307 307 307 307 307 307 307 307 307 306 306 306 306 306 305 305 304 304 304 305 305 305 304 304 305 305 305 304 303 303 303 304
328 325 325 324 316 310 311 310 313 318 320 319 316 309 308 308 308 309 309 309 309 308 308 308 307 308 308 308 308 307 308 308 308 308 308 308 307 308 307 307 307 306 306 306 306 305 305 305 304 304 304 303 303 303 303 303 303 303 302 302 303 303
330 327 325 325 318 312 312 310 313 319 320 321 319 312 309 309 309 310 311 311 313 312 311 310 309 308 308 308 308 308 308 308 308 308 308 308 308 308 308 308 308 307 307 307 306 306 306 305 305 304 304 304 304 303 303 303 303 303 303 303 303 303

ECMWFFLT2_850_thetae_045.txt.gz
Theta_e
330 328 328 329 330 330 331 331 329 329 328 327 328 327 328 328 327 327 327 327 327 328 329 330 331 331 328 326 326 327 327 326 324 324 324 324 324 322 319 318 318 318 317 316 316 318 320 322 326 330 332 332 332 332 332 331 331 331 330 330 330 329
330 330 329 330 331 331 332 331 330 330 329 329 329 329 329 328 328 328 328 328 328 328 328 329 330 330 329 327 327 328 328 328 326 325 324 323 324 323 319 319 318 317 317 316 316 317 319 321 324 329 331 331 332 332 332 332 331 332 330 330 330 329
329 329 329 331 331 331 332 331 332 331 330 330 330 330 329 329 329 330 330 330 330 330 330 330 329 330 330 329 328 328 329 329 328 327 326 324 323 323 321 319 319 318 317 316 315 316 319 321 323 326 329 330 332 332 331 332 331 331 330 330 330 329
328 329 329 330 331 331 332 332 332 331 331 331 331 330 330 329 330 330 330 330 330 331 330 330 330 331 330 329 329 329 329 330 329 329 327 326 324 323 322 319 320 320 319 319 316 315 318 320 323 325 326 329 331 332 331 331 331 331 329 329 329 330
329 329 329 331 331 331 331 332 332 331 331 331 330 330 330 329 330 330 330 330 330 330 330 331 331 331 330 330 330 329 329 330 330 330 329 328 325 324 323 321 320 320 322 323 317 315 317 319 322 325 326 329 329 329 329 330 331 331 330 329 330 330
329 329 329 331 331 331 331 331 331 331 330 331 330 330 330 330 330 330 330 330 330 330 331 331 331 331 330 330 330 330 330 330 330 330 330 329 326 325 325 323 322 322 325 323 315 317 319 317 320 324 326 327 328 328 328 328 330 330 330 331 331 330
329 328 329 330 331 331 331 331 331 331 331 330 330 330 330 330 330 330 330 330 330 330 330 329 329 329 330 330 329 330 330 331 331 330 330 329 328 326 326 326 324 325 327 322 316 321 324 320 319 321 323 326 327 328 327 327 328 329 330 331 331 330
329 329 330 331 331 331 331 331 331 331 331 331 331 331 332 332 331 331 330 330 330 330 329 327 328 329 329 329 329 330 330 330 330 330 330 330 329 328 327 327 327 328 328 322 321 325 327 326 324 320 320 324 326 327 326 326 326 328 329 329 330 330
328 328 330 331 333 332 332 332 332 331 331 332 332 332 333 333 333 332 331 331 331 330 329 328 329 329 328 328 328 330 330 330 330 330 330 330 329 328 328 328 328 330 329 325 325 327 327 327 326 324 321 323 326 327 326 325 326 327 327 329 329 329
329 330 331 334 335 334 334 334 333 333 333 333 334 334 334 333 333 332 331 332 331 330 330 330 330 330 329 327 328 329 329 329 330 330 331 331 330 329 328 329 329 330 330 328 327 328 328 328 327 327 325 325 326 327 327 327 328 327 327 328 329 328
332 333 334 336 335 335 335 335 335 334 334 334 334 334 333 333 332 330 331 332 332 331 331 332 331 331 329 328 328 329 329 329 329 330 331 331 330 330 329 329 329 330 330 329 328 328 329 329 328 328 327 327 327 326 327 327 328 328 326 327 329 328
335 336 337 337 336 335 334 333 334 334 334 334 333 333 332 332 331 330 331 331 332 332 332 331 331 331 330 329 329 330 329 329 329 330 331 330 331 331 330 330 330 330 329 329 329 329 329 329 329 329 328 328 328 327 327 327 327 328 327 328 329 328
338 338 338 337 335 333 332 331 332 331 332 333 333 333 332 332 332 331 331 331 331 332 331 330 329 330 330 330 330 329 329 330 330 330 331 331 331 331 330 331 331 330 329 329 329 330 329 330 329 329 328 327 328 328 327 327 327 327 327 328 329 328
339 339 338 336 334 332 331 330 330 330 331 332 332 332 331 331 331 330 330 330 330 331 330 329 329 329 330 330 330 330 330 330 331 330 331 331 331 330 330 330 330 329 329 329 329 330 330 330 329 329 328 328 327 328 328 328 327 327 327 327 328 328
338 338 337 335 333 331 330 329 329 329 329 330 330 329 329 329 328 328 329 329 328 329 330 329 329 329 330 330 330 330 329 330 331 330 330 330 330 330 330 329 329 328 328 329 329 329 330 329 329 329 328 327 327 327 327 327 327 327 327 327 327 328
337 337 336 334 332 331 330 329 328 328 328 328 327 327 328 327 327 327 329 329 327 327 329 329 329 329 330 330 330 330 330 330 330 330 330 330 330 330 330 329 328 327 327 328 328 329 329 329 329 329 328 328 327 327 326 326 326 326 326 327 326 327
336 335 334 333 332 330 328 327 326 327 326 325 326 326 328 327 327 328 329 328 328 328 329 329 329 329 329 330 330 329 329 330 330 330 330 330 329 329 329 329 328 327 326 327 328 329 329 329 329 329 328 328 327 327 327 326 326 326 326 326 326 326
334 334 334 332 330 328 326 326 326 326 324 323 324 326 327 327 327 328 328 328 328 328 328 328 328 328 329 329 329 328 329 330 330 330 330 330 329 329 329 328 328 328 327 326 327 328 328 328 328 328 329 329 328 327 327 327 326 327 326 326 326 326
332 332 332 330 328 327 326 326 326 325 324 323 322 324 326 326 326 326 325 324 325 327 327 327 327 328 328 328 328 328 327 328 328 329 330 330 330 329 329 328 328 328 328 327 327 328 328 328 327 328 329 329 328 328 327 327 327 327 327 326 326 326
330 330 330 327 327 326 326 326 326 325 324 324 323 323 325 325 324 323 322 321 323 326 326 326 326 326 327 327 327 326 326 326 327 327 328 329 329 329 328 328 329 328 328 328 328 329 329 329 329 329 330 329 328 328 327 327 328 328 327 327 327 327
328 329 328 326 325 324 324 324 324 324 324 324 323 323 323 323 322 322 322 321 322 324 325 325 325 325 326 326 325 325 324 323 325 326 327 327 327 327 327 328 328 328 328 329 329 329 329 329 330 330 329 329 328 328 327 327 327 328 327 327 327 327
327 328 327 325 323 321 322 322 322 322 322 321 322 322 322 321 322 323 322 319 319 318 320 322 323 323 322 321 323 323 321 321 322 324 325 325 326 326 327 328 328 328 329 329 329 329 329 329 330 330 330 329 328 328 328 328 328 328 327 327 327 327
327 328 327 325 322 320 321 322 322 320 319 319 319 322 323 322 322 321 320 318 315 313 315 319 320 319 317 317 319 319 318 319 321 322 323 324 323 323 325 326 327 327 328 328 328 328 328 329 329 330 330 329 329 328 328 328 328 328 328 328 327 327
329 328 327 324 322 322 323 323 321 320 320 320 320 322 323 323 322 321 321 318 314 312 314 317 317 316 315 317 318 318 318 320 321 321 322 322 322 322 323 324 325 326 326 327 327 327 328 328 328 329 329 329 328 328 328 327 327 327 327 328 327 326
329 326 323 323 324 325 324 320 318 319 321 322 322 323 323 322 321 321 320 315 312 314 315 316 316 317 318 319 319 320 321 321 321 321 321 322 322 323 323 323 324 325 326 327 327 327 327 327 328 328 328 328 328 328 328 327 326 327 327 327 326 325
326 321 319 323 327 325 320 315 314 316 318 320 320 321 320 319 317 317 314 311 312 316 317 318 318 320 320 320 320 320 320 321 321 321 321 321 321 322 323 324 324 325 326 326 326 326 326 326 327 327 327 328 327 327 327 327 326 326 326 325 324 323
320 316 317 322 324 320 314 313 314 314 315 316 316 316 315 313 312 311 310 310 314 318 319 320 319 319 319 319 319 319 319 319 320 320 320 321 320 318 321 324 324 325 325 325 325 325 325 326 326 327 327 327 328 326 326 326 326 326 325 325 324 323
315 313 314 318 318 315 314 314 314 315 317 316 315 312 309 308 308 308 308 310 313 317 319 320 320 319 318 318 319 317 316 316 317 318 317 316 315 314 318 323 323 323 325 324 324 324 324 325 326 326 327 327 327 327 326 326 327 326 325 325 325 324
312 310 312 315 316 316 316 315 315 317 317 317 315 310 307 307 307 307 307 307 309 312 313 314 315 315 315 317 317 314 313 314 314 313 310 308 308 309 315 320 318 319 321 320 322 324 323 324 325 325 326 326 326 326 326 326 327 327 326 325 324 324
310 312 314 318 319 319 319 318 317 317 317 316 313 309 307 307 307 306 307 306 307 307 307 308 308 309 312 314 313 310 310 311 310 308 306 305 305 307 310 312 310 311 314 312 316 320 320 321 322 322 323 323 323 324 325 325 325 325 325 325 324 323
312 315 318 321 321 321 321 320 319 318 317 314 309 308 308 308 307 307 306 306 306 306 306 306 306 308 310 310 309 307 307 307 307 306 306 306 306 306 306 307 306 308 308 307 309 311 311 315 319 319 318 318 318 320 321 322 322 322 323 323 323 323
313 318 323 323 324 323 322 322 321 319 317 313 309 308 308 308 308 307 306 306 306 306 306 307 306 307 308 307 306 306 306 307 306 306 307 306 306 307 306 306 306 306 307 306 306 306 308 311 314 314 313 311 312 314 316 317 317 316 315 316 318 319
316 322 323 322 322 323 323 323 322 320 318 313 309 308 308 308 307 306 306 306 306 306 306 306 306 306 307 306 306 307 307 307 307 306 307 307 306 307 306 306 306 306 306 306 306 306 307 308 309 309 309 309 309 310 311 312 311 308 307 308 309 309
320 321 317 318 321 323 324 323 322 322 319 312 308 308 309 308 308 307 306 306 306 306 306 306 306 306 306 306 306 307 307 306 306 306 306 306 306 306 306 306 306 306 306 305 305 305 305 305 306 306 307 306 306 306 307 308 306 304 303 304 305 304
324 321 316 319 323 323 324 323 322 322 318 312 308 308 308 308 308 307 306 307 306 306 306 306 306 306 306 306 306 306 307 306 306 306 306 306 306 306 306 306 305 305 305 305 305 304 304 304 304 304 304 304 303 303 304 304 303 303 302 303 303 304
326 323 321 323 324 324 324 323 322 320 315 311 309 308 308 308 307 307 307 307 307 307 307 307 307 307 307 307 307 307 307 307 307 307 307 307 307 307 307 307 306 306 306 305 305 304 304 303 303 303 303 303 303 302 302 302 302 302 302 302 303 303
327 324 323 323 322 322 323 324 320 316 313 313 312 308 308 308 308 308 307 307 307 307 307 307 307 307 307 307 307 307 308 308 308 308 308 308 308 308 308 307 307 307 307 306 306 306 305 305 304 304 303 303 303 303 303 303 303 303 303 303 303 302

ECMWFFLT2_850_thetae_048.txt.gz
Theta_e
327 326 326 326 327 325 325 327 327 330 331 330 331 330 329 329 329 329 329 328 328 330 330 330 330 329 326 325 326 327 327 325 323 324 324 323 322 319 318 317 317 318 320 320 321 324 327 329 331 331 332 332 331 331 330 330 329 328 327 327 327 327
329 328 328 328 327 327 329 330 329 330 331 329 329 328 328 328 328 328 327 327 328 329 329 329 330 330 327 326 327 327 328 327 325 324 323 323 323 320 318 318 317 317 318 320 321 322 324 327 329 330 332 332 331 332 331 330 329 329 328 327 326 327
330 329 329 328 329 331 332 331 329 330 329 327 328 327 327 327 327 327 327 327 327 328 328 329 329 329 329 327 328 329 329 328 327 326 324 323 323 321 319 319 318 316 316 318 321 323 323 324 326 328 331 332 331 331 331 330 330 330 329 328 327 327
329 329 329 328 331 334 334 332 330 330 328 327 328 328 328 327 328 328 328 329 329 329 329 329 330 329 330 329 329 330 329 329 329 328 326 324 324 322 320 319 319 318 318 317 317 321 323 324 324 326 329 330 331 331 330 331 330 331 329 329 328 327
328 330 330 330 333 335 335 332 330 329 329 329 329 329 328 328 329 329 329 330 330 330 330 330 330 330 330 330 330 330 329 330 330 329 329 327 325 324 322 320 320 320 320 321 317 317 321 324 324 325 327 328 330 331 331 330 330 330 329 329 328 328
329 331 331 331 333 335 334 330 329 329 329 329 329 328 328 328 329 329 330 330 330 330 330 330 330 331 330 331 331 330 330 330 330 330 330 329 327 325 324 323 321 320 322 325 319 316 319 322 324 325 326 327 329 330 330 330 330 330 329 329 328 328
329 330 331 332 332 333 332 330 330 329 329 329 329 329 328 329 329 330 330 330 330 330 330 330 330 330 329 330 331 330 331 330 331 331 330 330 329 326 325 325 323 322 325 326 318 315 319 320 322 325 325 327 328 330 330 329 329 329 329 329 329 328
328 328 330 332 332 331 331 330 330 329 329 330 329 330 329 330 330 330 330 330 330 330 330 329 328 328 328 329 330 330 330 330 330 331 330 330 330 328 326 326 326 325 327 325 318 318 320 319 322 324 325 326 328 329 329 328 327 328 328 328 328 328
328 327 329 331 330 330 330 330 331 330 330 330 329 330 330 331 332 332 331 331 330 330 330 328 327 328 329 329 329 330 330 330 331 331 330 330 330 330 328 327 327 328 329 325 320 321 323 321 323 324 323 325 327 328 327 327 326 326 327 327 327 328
329 328 328 329 329 329 330 330 330 330 329 330 330 331 332 333 333 333 333 332 331 330 330 328 328 329 329 329 329 329 329 329 330 331 330 329 330 331 329 328 328 328 330 327 324 324 325 324 324 324 323 323 327 328 326 324 324 325 326 327 327 327
329 329 328 328 329 329 329 329 329 330 330 330 330 332 333 334 333 333 332 331 330 330 330 330 329 329 329 330 329 329 329 329 329 330 329 330 331 331 329 328 329 329 330 329 327 325 326 326 325 325 324 324 326 327 327 324 324 325 325 326 327 327
328 328 328 328 329 329 329 330 331 332 332 330 330 333 334 334 333 332 331 329 329 331 331 331 330 330 329 329 329 328 329 329 328 329 329 330 330 330 329 329 329 329 330 330 329 327 327 327 327 326 326 325 326 327 327 325 325 326 326 326 327 328
330 330 329 329 329 329 331 332 335 335 334 333 332 334 333 333 332 331 330 329 330 331 331 330 329 329 328 328 328 328 329 329 329 329 329 330 330 331 330 329 330 330 330 329 329 328 328 327 327 327 327 327 327 327 327 326 325 326 327 326 327 328
333 333 332 333 334 333 334 334 335 335 334 334 333 333 332 332 331 331 331 330 330 330 330 330 329 328 328 328 329 329 330 329 329 329 329 330 330 330 330 329 330 330 330 329 328 329 329 328 328 328 328 328 328 327 327 327 326 326 327 327 327 327
336 336 336 336 336 335 335 334 333 333 332 332 332 332 331 329 329 329 329 328 328 329 329 329 328 328 328 328 329 329 330 329 329 329 329 329 330 330 330 329 329 329 330 329 329 329 329 329 329 329 329 328 328 327 327 327 327 327 327 326 326 327
337 338 337 335 335 334 333 332 332 332 330 330 330 329 328 327 327 326 327 328 327 327 328 328 327 327 328 329 329 329 329 329 328 328 328 329 329 329 329 329 329 329 329 329 328 329 329 329 329 329 329 329 328 328 327 327 327 327 327 327 326 326
337 337 336 333 333 332 332 332 331 330 328 328 327 327 326 326 325 325 327 328 327 326 326 327 327 327 328 328 329 329 329 329 328 328 328 329 329 329 329 329 329 329 329 328 328 327 329 329 329 329 329 328 328 328 327 327 326 326 326 326 326 326
336 335 335 333 332 331 331 331 329 328 327 326 325 324 325 325 324 324 325 326 326 325 325 326 327 327 327 328 328 328 328 328 328 328 328 328 329 329 329 329 329 329 329 328 327 327 328 329 329 329 329 329 328 328 328 327 327 326 326 326 326 326
337 335 334 332 331 331 329 328 327 326 325 322 320 321 322 323 324 323 323 323 323 324 325 326 326 326 326 327 328 328 328 327 327 327 327 328 329 329 329 329 329 328 328 328 327 326 328 329 329 328 328 328 329 329 328 328 327 327 326 326 326 326
337 335 332 330 329 328 326 325 326 324 323 321 319 320 322 323 323 323 321 319 318 320 323 325 325 324 324 325 326 326 326 326 326 326 326 327 328 329 329 329 329 329 328 329 328 327 328 329 329 328 328 328 328 328 328 328 327 327 327 326 326 326
337 333 330 327 326 324 322 322 322 322 321 321 320 320 321 321 321 320 318 315 315 319 323 325 325 324 324 324 325 325 325 325 324 324 324 325 326 327 328 329 328 328 328 328 329 329 329 329 329 329 329 329 329 328 328 328 327 327 327 327 327 327
335 332 328 324 322 320 318 318 320 321 322 322 322 321 320 320 319 318 317 314 313 315 320 324 325 325 324 323 323 323 322 322 321 321 322 323 325 325 326 327 328 328 328 328 329 329 329 329 329 329 329 329 329 328 328 327 327 327 327 327 327 327
334 331 325 322 320 318 317 318 321 323 323 323 322 321 322 322 321 319 317 315 313 313 316 320 322 322 321 319 318 317 316 316 317 317 317 319 322 323 323 325 327 328 328 328 329 329 329 328 328 328 328 329 328 328 328 328 328 328 328 328 327 327
333 330 323 319 317 317 318 321 324 325 324 323 322 321 322 322 321 319 317 315 314 312 314 318 319 318 317 316 315 315 316 317 318 318 317 317 320 321 321 322 324 326 327 327 327 328 328 328 328 327 327 328 328 327 327 327 328 328 328 328 327 327
332 327 320 317 316 316 317 321 324 324 322 321 320 319 319 319 318 317 315 314 311 310 314 316 316 316 316 316 317 317 319 319 319 320 319 320 321 321 322 323 323 324 325 326 326 326 327 327 327 327 327 327 327 327 327 327 327 327 327 327 327 327
331 325 318 315 316 316 316 318 320 320 317 316 315 315 317 318 318 317 314 311 309 310 313 315 316 317 318 318 319 319 319 319 319 320 319 320 320 320 321 323 323 323 325 325 325 326 326 326 327 326 326 327 326 327 327 327 327 327 326 326 325 325
330 323 315 314 316 315 315 316 316 315 314 313 313 313 315 318 318 315 311 309 309 311 314 316 317 317 317 318 318 317 317 317 317 318 317 318 319 317 318 322 324 324 325 324 324 325 325 326 326 326 326 326 327 327 327 326 326 326 325 324 324 323
330 322 313 314 315 314 314 313 313 313 313 315 315 314 314 314 313 311 309 308 309 312 315 316 316 317 316 316 316 314 314 315 315 315 313 313 314 314 317 321 322 322 323 323 323 323 323 325 326 326 326 326 326 326 326 326 326 325 325 324 324 324
331 323 314 313 313 313 313 312 313 313 314 316 316 316 314 311 308 308 307 307 308 310 312 313 314 315 314 314 314 312 312 313 311 310 307 307 308 311 317 321 319 319 320 320 322 323 322 323 324 325 325 325 324 324 325 325 325 325 325 324 323 323
333 327 316 312 312 313 313 312 313 314 315 316 316 316 314 309 307 307 306 307 307 307 308 308 309 311 312 313 311 309 309 309 307 306 306 306 306 309 314 317 314 314 314 313 318 320 320 321 321 321 322 321 321 322 323 323 324 323 324 324 321 320
333 329 316 311 313 313 313 314 314 316 317 317 317 315 312 308 307 307 306 306 306 306 306 306 306 308 310 310 307 306 306 306 306 306 306 306 306 306 308 308 307 308 307 307 311 313 315 318 319 318 317 316 317 319 319 319 320 320 321 322 321 319
333 329 318 312 314 313 314 315 316 317 318 318 318 315 311 308 307 307 306 306 306 306 306 306 306 307 307 307 306 306 306 306 306 306 306 306 306 306 306 306 306 306 306 305 307 308 310 313 314 313 312 310 311 313 315 315 313 312 313 318 320 319
332 331 325 316 314 314 316 317 316 317 318 319 320 318 312 308 307 306 306 306 306 306 306 306 306 306 306 306 306 306 306 306 306 306 306 306 305 306 305 306 305 305 305 305 305 306 307 307 308 308 307 306 307 309 310 309 307 305 306 309 312 315
330 330 325 316 314 316 318 319 318 318 320 321 321 319 313 308 307 307 306 306 306 306 306 306 306 306 306 306 306 306 306 306 306 306 306 305 305 305 305 305 305 305 304 304 304 304 305 305 305 305 304 304 304 305 305 304 303 303 304 304 305 307
328 326 319 312 314 319 319 320 321 321 322 322 322 320 314 308 307 307 306 306 306 306 306 306 306 306 306 306 306 306 306 306 306 306 306 306 306 306 305 305 305 305 305 304 304 303 303 303 303 303 303 302 303 303 303 303 302 302 303 303 303 304
323 319 316 316 319 320 320 321 322 323 323 322 322 321 314 308 307 307 306 306 306 306 306 306 306 306 306 306 306 307 306 306 307 306 307 307 307 307 306 306 306 305 305 305 305 304 304 303 303 303 303 302 302 302 302 302 302 302 302 302 303 303
318 315 315 320 319 317 319 322 322 322 323 323 322 320 313 308 307 307 306 306 306 306 307 306 306 307 307 307 307 307 307 307 307 307 307 307 307 307 307 307 307 307 306 306 306 306 305 305 304 304 304 303 303 303 303 304 303 303 302 302 303 303